Wetterdaten: Montag, 31.12.2012
Datum Zeit Temp. Innen Temp. Aussen +5cm Feuchte Auss Luftdruck Regen Sonnenschein T Regendauer ET UV Solar Windben
31.12.2012 00:00 14,9 C 8,5 C 6,8 C 86 % 1016,4 hPa 0,0 l/m 0 min 0 min 0,000 mm 0,0 UV-I 0 W/m 18,0 km/h (3 Bft)
31.12.2012 00:02 15,1 C 8,4 C 6,8 C 86 % 1016,5 hPa 0,0 l/m 0 min 0 min 0,000 mm 0,0 UV-I 0 W/m 18,0 km/h (3 Bft)
31.12.2012 00:06 15,0 C 8,4 C 6,8 C 86 % 1016,5 hPa 0,0 l/m 0 min 0 min 0,000 mm 0,0 UV-I 0 W/m 25,7 km/h (4 Bft)
31.12.2012 00:08 15,0 C 8,4 C 6,8 C 86 % 1016,5 hPa 0,0 l/m 0 min 0 min 0,000 mm 0,0 UV-I 0 W/m 30,9 km/h (5 Bft)
31.12.2012 00:10 15,0 C 8,4 C 6,8 C 86 % 1016,5 hPa 0,0 l/m 0 min 0 min 0,000 mm 0,0 UV-I 0 W/m 18,0 km/h (3 Bft)
31.12.2012 00:12 15,0 C 8,4 C 6,8 C 86 % 1016,4 hPa 0,0 l/m 0 min 0 min 0,000 mm 0,0 UV-I 0 W/m 28,3 km/h (4 Bft)
31.12.2012 00:14 15,0 C 8,5 C 6,8 C 86 % 1016,4 hPa 0,0 l/m 0 min 0 min 0,000 mm 0,0 UV-I 0 W/m 30,9 km/h (5 Bft)
31.12.2012 00:16 15,0 C 8,5 C 6,8 C 86 % 1016,5 hPa 0,0 l/m 0 min 0 min 0,000 mm 0,0 UV-I 0 W/m 18,0 km/h (3 Bft)
31.12.2012 00:18 15,1 C 8,5 C 6,8 C 86 % 1016,5 hPa 0,0 l/m 0 min 0 min 0,000 mm 0,0 UV-I 0 W/m 18,0 km/h (3 Bft)
31.12.2012 00:20 15,1 C 8,5 C 6,8 C 86 % 1016,5 hPa 0,0 l/m 0 min 0 min 0,000 mm 0,0 UV-I 0 W/m 20,6 km/h (4 Bft)
31.12.2012 00:22 15,0 C 8,5 C 6,8 C 86 % 1016,5 hPa 0,0 l/m 0 min 0 min 0,000 mm 0,0 UV-I 0 W/m 18,0 km/h (3 Bft)
31.12.2012 00:24 15,0 C 8,6 C 6,8 C 86 % 1016,5 hPa 0,0 l/m 0 min 0 min 0,000 mm 0,0 UV-I 0 W/m 15,4 km/h (3 Bft)
31.12.2012 00:26 15,0 C 8,6 C 6,8 C 86 % 1016,5 hPa 0,0 l/m 0 min 0 min 0,000 mm 0,0 UV-I 0 W/m 20,6 km/h (4 Bft)
31.12.2012 00:28 15,0 C 8,6 C 6,8 C 85 % 1016,5 hPa 0,0 l/m 0 min 0 min 0,000 mm 0,0 UV-I 0 W/m 30,9 km/h (5 Bft)
31.12.2012 00:30 15,0 C 8,6 C 6,8 C 85 % 1016,5 hPa 0,0 l/m 0 min 0 min 0,000 mm 0,0 UV-I 0 W/m 18,0 km/h (3 Bft)
31.12.2012 00:32 14,9 C 8,6 C 6,8 C 85 % 1016,8 hPa 0,0 l/m 0 min 0 min 0,000 mm 0,0 UV-I 0 W/m 25,7 km/h (4 Bft)
31.12.2012 00:34 15,0 C 8,6 C 6,8 C 85 % 1016,6 hPa 0,0 l/m 0 min 0 min 0,000 mm 0,0 UV-I 0 W/m 18,0 km/h (3 Bft)
31.12.2012 00:36 15,1 C 8,6 C 6,8 C 85 % 1016,5 hPa 0,0 l/m 0 min 0 min 0,000 mm 0,0 UV-I 0 W/m 15,4 km/h (3 Bft)
31.12.2012 00:38 15,0 C 8,6 C 6,8 C 85 % 1016,5 hPa 0,0 l/m 0 min 0 min 0,000 mm 0,0 UV-I 0 W/m 25,7 km/h (4 Bft)
31.12.2012 00:40 15,0 C 8,6 C 6,8 C 85 % 1016,5 hPa 0,0 l/m 0 min 0 min 0,000 mm 0,0 UV-I 0 W/m 28,3 km/h (4 Bft)
31.12.2012 00:42 15,0 C 8,6 C 6,8 C 85 % 1016,7 hPa 0,0 l/m 0 min 0 min 0,000 mm 0,0 UV-I 0 W/m 18,0 km/h (3 Bft)
31.12.2012 00:44 15,0 C 8,6 C 6,8 C 85 % 1016,5 hPa 0,0 l/m 0 min 0 min 0,000 mm 0,0 UV-I 0 W/m 18,0 km/h (3 Bft)
31.12.2012 00:46 15,0 C 8,6 C 6,8 C 85 % 1016,7 hPa 0,0 l/m 0 min 0 min 0,000 mm 0,0 UV-I 0 W/m 20,6 km/h (4 Bft)
31.12.2012 00:48 14,9 C 8,5 C 6,8 C 85 % 1016,6 hPa 0,0 l/m 0 min 0 min 0,000 mm 0,0 UV-I 0 W/m 15,4 km/h (3 Bft)
31.12.2012 00:50 14,9 C 8,5 C 6,8 C 85 % 1016,6 hPa 0,0 l/m 0 min 0 min 0,000 mm 0,0 UV-I 0 W/m 18,0 km/h (3 Bft)
31.12.2012 00:52 15,1 C 8,6 C 6,8 C 85 % 1016,5 hPa 0,0 l/m 0 min 0 min 0,000 mm 0,0 UV-I 0 W/m 41,2 km/h (6 Bft)
31.12.2012 00:54 15,0 C 8,6 C 6,8 C 85 % 1016,5 hPa 0,0 l/m 0 min 0 min 0,000 mm 0,0 UV-I 0 W/m 10,3 km/h (2 Bft)
31.12.2012 00:56 15,0 C 8,5 C 6,8 C 85 % 1016,6 hPa 0,0 l/m 0 min 0 min 0,000 mm 0,0 UV-I 0 W/m 12,9 km/h (3 Bft)
31.12.2012 00:58 15,0 C 8,5 C 6,8 C 85 % 1016,6 hPa 0,0 l/m 0 min 0 min 0,000 mm 0,0 UV-I 0 W/m 20,6 km/h (4 Bft)
31.12.2012 01:00 15,0 C 8,5 C 6,8 C 85 % 1016,5 hPa 0,0 l/m 0 min 0 min 0,025 mm 0,0 UV-I 0 W/m 18,0 km/h (3 Bft)
31.12.2012 01:02 15,0 C 8,5 C 6,8 C 85 % 1016,5 hPa 0,0 l/m 0 min 0 min 0,000 mm 0,0 UV-I 0 W/m 15,4 km/h (3 Bft)
31.12.2012 01:04 15,0 C 8,4 C 6,8 C 85 % 1016,6 hPa 0,0 l/m 0 min 0 min 0,000 mm 0,0 UV-I 0 W/m 7,7 km/h (2 Bft)
31.12.2012 01:06 15,0 C 8,4 C 6,8 C 86 % 1016,6 hPa 0,0 l/m 0 min 0 min 0,000 mm 0,0 UV-I 0 W/m 18,0 km/h (3 Bft)
31.12.2012 01:08 15,1 C 8,4 C 6,8 C 86 % 1016,5 hPa 0,0 l/m 0 min 0 min 0,000 mm 0,0 UV-I 0 W/m 12,9 km/h (3 Bft)
31.12.2012 01:10 15,1 C 8,4 C 6,8 C 86 % 1016,9 hPa 0,0 l/m 0 min 0 min 0,000 mm 0,0 UV-I 0 W/m 38,6 km/h (5 Bft)
31.12.2012 01:12 15,1 C 8,4 C 6,8 C 86 % 1016,6 hPa 0,0 l/m 0 min 0 min 0,000 mm 0,0 UV-I 0 W/m 43,8 km/h (6 Bft)
31.12.2012 01:14 15,0 C 8,5 C 6,8 C 86 % 1016,7 hPa 0,0 l/m 0 min 0 min 0,000 mm 0,0 UV-I 0 W/m 30,9 km/h (5 Bft)
31.12.2012 01:16 15,0 C 8,5 C 6,8 C 85 % 1016,7 hPa 0,0 l/m 0 min 0 min 0,000 mm 0,0 UV-I 0 W/m 23,2 km/h (4 Bft)
31.12.2012 01:18 15,0 C 8,6 C 6,8 C 85 % 1016,7 hPa 0,0 l/m 0 min 0 min 0,000 mm 0,0 UV-I 0 W/m 23,2 km/h (4 Bft)
31.12.2012 01:20 15,0 C 8,6 C 6,8 C 85 % 1016,6 hPa 0,0 l/m 0 min 0 min 0,000 mm 0,0 UV-I 0 W/m 18,0 km/h (3 Bft)
31.12.2012 01:22 15,0 C 8,6 C 6,8 C 85 % 1016,7 hPa 0,0 l/m 0 min 0 min 0,000 mm 0,0 UV-I 0 W/m 18,0 km/h (3 Bft)
31.12.2012 01:24 15,0 C 8,6 C 6,8 C 85 % 1016,8 hPa 0,0 l/m 0 min 0 min 0,000 mm 0,0 UV-I 0 W/m 12,9 km/h (3 Bft)
31.12.2012 01:26 15,1 C 8,6 C 6,8 C 85 % 1016,8 hPa 0,0 l/m 0 min 0 min 0,000 mm 0,0 UV-I 0 W/m 15,4 km/h (3 Bft)
31.12.2012 01:28 15,1 C 8,6 C 6,8 C 85 % 1016,8 hPa 0,0 l/m 0 min 0 min 0,000 mm 0,0 UV-I 0 W/m 25,7 km/h (4 Bft)
31.12.2012 01:30 15,0 C 8,6 C 6,8 C 85 % 1016,9 hPa 0,0 l/m 0 min 0 min 0,000 mm 0,0 UV-I 0 W/m 23,2 km/h (4 Bft)
31.12.2012 01:32 15,0 C 8,6 C 6,8 C 85 % 1016,7 hPa 0,0 l/m 0 min 0 min 0,000 mm 0,0 UV-I 0 W/m 18,0 km/h (3 Bft)
31.12.2012 01:34 15,0 C 8,6 C 6,8 C 85 % 1016,6 hPa 0,0 l/m 0 min 0 min 0,000 mm 0,0 UV-I 0 W/m 30,9 km/h (5 Bft)
31.12.2012 01:36 15,0 C 8,6 C 6,8 C 85 % 1016,7 hPa 0,0 l/m 0 min 0 min 0,000 mm 0,0 UV-I 0 W/m 23,2 km/h (4 Bft)
31.12.2012 01:38 15,0 C 8,6 C 6,8 C 85 % 1016,9 hPa 0,0 l/m 0 min 0 min 0,000 mm 0,0 UV-I 0 W/m 25,7 km/h (4 Bft)
31.12.2012 01:40 15,0 C 8,6 C 6,8 C 85 % 1016,6 hPa 0,0 l/m 0 min 0 min 0,000 mm 0,0 UV-I 0 W/m 20,6 km/h (4 Bft)
31.12.2012 01:42 15,1 C 8,6 C 6,8 C 85 % 1016,5 hPa 0,0 l/m 0 min 0 min 0,000 mm 0,0 UV-I 0 W/m 18,0 km/h (3 Bft)
31.12.2012 01:44 15,1 C 8,6 C 7,3 C 85 % 1016,6 hPa 0,0 l/m 0 min 0 min 0,000 mm 0,0 UV-I 0 W/m 25,7 km/h (4 Bft)
31.12.2012 01:46 15,0 C 8,6 C 7,3 C 85 % 1016,6 hPa 0,0 l/m 0 min 0 min 0,000 mm 0,0 UV-I 0 W/m 23,2 km/h (4 Bft)
31.12.2012 01:48 15,0 C 8,7 C 7,3 C 85 % 1016,5 hPa 0,0 l/m 0 min 0 min 0,000 mm 0,0 UV-I 0 W/m 15,4 km/h (3 Bft)
31.12.2012 01:50 15,0 C 8,7 C 7,3 C 85 % 1016,5 hPa 0,0 l/m 0 min 0 min 0,000 mm 0,0 UV-I 0 W/m 18,0 km/h (3 Bft)
31.12.2012 01:52 15,0 C 8,7 C 7,3 C 85 % 1016,5 hPa 0,0 l/m 0 min 0 min 0,000 mm 0,0 UV-I 0 W/m 18,0 km/h (3 Bft)
31.12.2012 01:54 15,0 C 8,7 C 7,3 C 85 % 1016,5 hPa 0,0 l/m 0 min 0 min 0,000 mm 0,0 UV-I 0 W/m 30,9 km/h (5 Bft)
31.12.2012 01:56 15,0 C 8,7 C 7,3 C 84 % 1016,5 hPa 0,0 l/m 0 min 0 min 0,000 mm 0,0 UV-I 0 W/m 30,9 km/h (5 Bft)
31.12.2012 01:58 15,0 C 8,7 C 7,3 C 84 % 1016,5 hPa 0,0 l/m 0 min 0 min 0,000 mm 0,0 UV-I 0 W/m 23,2 km/h (4 Bft)
31.12.2012 02:00 15,2 C 8,7 C 7,3 C 84 % 1016,5 hPa 0,0 l/m 0 min 0 min 0,026 mm 0,0 UV-I 0 W/m 18,0 km/h (3 Bft)
31.12.2012 02:02 15,1 C 8,7 C 6,8 C 84 % 1016,6 hPa 0,0 l/m 0 min 0 min 0,000 mm 0,0 UV-I 0 W/m 18,0 km/h (3 Bft)
31.12.2012 02:04 15,1 C 8,7 C 6,8 C 84 % 1016,5 hPa 0,0 l/m 0 min 0 min 0,000 mm 0,0 UV-I 0 W/m 25,7 km/h (4 Bft)
31.12.2012 02:06 15,0 C 8,7 C 6,8 C 84 % 1016,5 hPa 0,0 l/m 0 min 0 min 0,000 mm 0,0 UV-I 0 W/m 15,4 km/h (3 Bft)
31.12.2012 02:08 15,0 C 8,7 C 6,8 C 84 % 1016,6 hPa 0,0 l/m 0 min 0 min 0,000 mm 0,0 UV-I 0 W/m 20,6 km/h (4 Bft)
31.12.2012 02:10 15,0 C 8,7 C 6,8 C 85 % 1016,7 hPa 0,0 l/m 0 min 0 min 0,000 mm 0,0 UV-I 0 W/m 15,4 km/h (3 Bft)
31.12.2012 02:12 15,0 C 8,7 C 7,3 C 85 % 1016,5 hPa 0,0 l/m 0 min 0 min 0,000 mm 0,0 UV-I 0 W/m 20,6 km/h (4 Bft)
31.12.2012 02:14 15,0 C 8,7 C 7,3 C 85 % 1016,6 hPa 0,0 l/m 0 min 0 min 0,000 mm 0,0 UV-I 0 W/m 18,0 km/h (3 Bft)
31.12.2012 02:16 15,1 C 8,7 C 7,3 C 85 % 1016,6 hPa 0,0 l/m 0 min 0 min 0,000 mm 0,0 UV-I 0 W/m 10,3 km/h (2 Bft)
31.12.2012 02:18 15,2 C 8,7 C 7,3 C 85 % 1016,6 hPa 0,0 l/m 0 min 0 min 0,000 mm 0,0 UV-I 0 W/m 12,9 km/h (3 Bft)
31.12.2012 02:20 15,1 C 8,7 C 7,3 C 85 % 1016,6 hPa 0,0 l/m 0 min 0 min 0,000 mm 0,0 UV-I 0 W/m 18,0 km/h (3 Bft)
31.12.2012 02:22 15,1 C 8,7 C 7,3 C 85 % 1016,7 hPa 0,0 l/m 0 min 0 min 0,000 mm 0,0 UV-I 0 W/m 20,6 km/h (4 Bft)
31.12.2012 02:24 15,1 C 8,7 C 7,3 C 85 % 1016,6 hPa 0,0 l/m 0 min 0 min 0,000 mm 0,0 UV-I 0 W/m 25,7 km/h (4 Bft)
31.12.2012 02:26 15,1 C 8,7 C 7,3 C 85 % 1016,6 hPa 0,0 l/m 0 min 0 min 0,000 mm 0,0 UV-I 0 W/m 12,9 km/h (3 Bft)
31.12.2012 02:28 15,1 C 8,7 C 7,3 C 85 % 1016,5 hPa 0,0 l/m 0 min 0 min 0,000 mm 0,0 UV-I 0 W/m 15,4 km/h (3 Bft)
31.12.2012 02:30 15,1 C 8,7 C 7,3 C 85 % 1016,5 hPa 0,0 l/m 0 min 0 min 0,000 mm 0,0 UV-I 0 W/m 12,9 km/h (3 Bft)
31.12.2012 02:32 15,1 C 8,7 C 7,3 C 85 % 1016,6 hPa 0,0 l/m 0 min 0 min 0,000 mm 0,0 UV-I 0 W/m 15,4 km/h (3 Bft)
31.12.2012 02:34 15,2 C 8,7 C 7,3 C 85 % 1016,4 hPa 0,0 l/m 0 min 0 min 0,000 mm 0,0 UV-I 0 W/m 12,9 km/h (3 Bft)
31.12.2012 02:36 15,1 C 8,7 C 7,3 C 85 % 1016,3 hPa 0,0 l/m 0 min 0 min 0,000 mm 0,0 UV-I 0 W/m 12,9 km/h (3 Bft)
31.12.2012 02:38 15,1 C 8,7 C 7,3 C 85 % 1016,4 hPa 0,0 l/m 0 min 0 min 0,000 mm 0,0 UV-I 0 W/m 23,2 km/h (4 Bft)
31.12.2012 02:40 15,1 C 8,7 C 7,3 C 85 % 1016,3 hPa 0,0 l/m 0 min 0 min 0,000 mm 0,0 UV-I 0 W/m 12,9 km/h (3 Bft)
31.12.2012 02:42 15,1 C 8,7 C 7,3 C 85 % 1016,3 hPa 0,0 l/m 0 min 0 min 0,000 mm 0,0 UV-I 0 W/m 20,6 km/h (4 Bft)
31.12.2012 02:44 15,1 C 8,7 C 6,8 C 85 % 1016,4 hPa 0,0 l/m 0 min 0 min 0,000 mm 0,0 UV-I 0 W/m 15,4 km/h (3 Bft)
31.12.2012 02:46 15,1 C 8,7 C 6,8 C 85 % 1016,5 hPa 0,0 l/m 0 min 0 min 0,000 mm 0,0 UV-I 0 W/m 20,6 km/h (4 Bft)
31.12.2012 02:48 15,1 C 8,7 C 6,8 C 85 % 1016,3 hPa 0,0 l/m 0 min 0 min 0,000 mm 0,0 UV-I 0 W/m 23,2 km/h (4 Bft)
31.12.2012 02:50 15,2 C 8,7 C 6,8 C 85 % 1016,4 hPa 0,0 l/m 0 min 0 min 0,000 mm 0,0 UV-I 0 W/m 7,7 km/h (2 Bft)
31.12.2012 02:52 15,2 C 8,7 C 6,8 C 85 % 1016,4 hPa 0,0 l/m 0 min 0 min 0,000 mm 0,0 UV-I 0 W/m 10,3 km/h (2 Bft)
31.12.2012 02:54 15,2 C 8,7 C 6,8 C 85 % 1016,4 hPa 0,0 l/m 0 min 0 min 0,000 mm 0,0 UV-I 0 W/m 7,7 km/h (2 Bft)
31.12.2012 02:56 15,1 C 8,6 C 6,8 C 85 % 1016,4 hPa 0,0 l/m 0 min 0 min 0,000 mm 0,0 UV-I 0 W/m 7,7 km/h (2 Bft)
31.12.2012 02:58 15,1 C 8,6 C 6,8 C 85 % 1016,6 hPa 0,0 l/m 0 min 0 min 0,000 mm 0,0 UV-I 0 W/m 12,9 km/h (3 Bft)
31.12.2012 03:00 15,1 C 8,6 C 6,8 C 85 % 1016,3 hPa 0,0 l/m 0 min 0 min 0,025 mm 0,0 UV-I 0 W/m 18,0 km/h (3 Bft)
31.12.2012 03:02 15,1 C 8,6 C 6,8 C 85 % 1016,4 hPa 0,0 l/m 0 min 0 min 0,000 mm 0,0 UV-I 0 W/m 10,3 km/h (2 Bft)
31.12.2012 03:04 15,1 C 8,5 C 6,8 C 85 % 1016,5 hPa 0,0 l/m 0 min 0 min 0,000 mm 0,0 UV-I 0 W/m 12,9 km/h (3 Bft)
31.12.2012 03:06 15,2 C 8,5 C 6,8 C 85 % 1016,4 hPa 0,0 l/m 0 min 0 min 0,000 mm 0,0 UV-I 0 W/m 20,6 km/h (4 Bft)
31.12.2012 03:08 15,3 C 8,4 C 6,8 C 85 % 1016,4 hPa 0,0 l/m 0 min 0 min 0,000 mm 0,0 UV-I 0 W/m 20,6 km/h (4 Bft)
31.12.2012 03:10 15,2 C 8,4 C 6,8 C 85 % 1016,4 hPa 0,0 l/m 0 min 0 min 0,000 mm 0,0 UV-I 0 W/m 18,0 km/h (3 Bft)
31.12.2012 03:12 15,2 C 8,4 C 6,8 C 86 % 1016,4 hPa 0,0 l/m 0 min 0 min 0,000 mm 0,0 UV-I 0 W/m 7,7 km/h (2 Bft)
31.12.2012 03:14 15,2 C 8,4 C 6,8 C 86 % 1016,4 hPa 0,0 l/m 0 min 0 min 0,000 mm 0,0 UV-I 0 W/m 7,7 km/h (2 Bft)
31.12.2012 03:16 15,2 C 8,4 C 6,8 C 86 % 1016,4 hPa 0,0 l/m 0 min 0 min 0,000 mm 0,0 UV-I 0 W/m 12,9 km/h (3 Bft)
31.12.2012 03:18 15,2 C 8,4 C 6,2 C 86 % 1016,3 hPa 0,0 l/m 0 min 0 min 0,000 mm 0,0 UV-I 0 W/m 20,6 km/h (4 Bft)
31.12.2012 03:20 15,2 C 8,4 C 6,8 C 86 % 1016,3 hPa 0,0 l/m 0 min 0 min 0,000 mm 0,0 UV-I 0 W/m 20,6 km/h (4 Bft)
31.12.2012 03:22 15,2 C 8,4 C 6,8 C 86 % 1016,3 hPa 0,0 l/m 0 min 0 min 0,000 mm 0,0 UV-I 0 W/m 10,3 km/h (2 Bft)
31.12.2012 03:24 15,3 C 8,3 C 6,2 C 86 % 1016,3 hPa 0,0 l/m 0 min 0 min 0,000 mm 0,0 UV-I 0 W/m 10,3 km/h (2 Bft)
31.12.2012 03:26 15,3 C 8,3 C 6,2 C 86 % 1016,2 hPa 0,0 l/m 0 min 0 min 0,000 mm 0,0 UV-I 0 W/m 10,3 km/h (2 Bft)
31.12.2012 03:28 15,3 C 8,3 C 6,2 C 86 % 1016,1 hPa 0,0 l/m 0 min 0 min 0,000 mm 0,0 UV-I 0 W/m 15,4 km/h (3 Bft)
31.12.2012 03:30 15,3 C 8,3 C 6,2 C 86 % 1016,2 hPa 0,0 l/m 0 min 0 min 0,000 mm 0,0 UV-I 0 W/m 5,1 km/h (1 Bft)
31.12.2012 03:32 15,3 C 8,3 C 6,2 C 86 % 1016,2 hPa 0,0 l/m 0 min 0 min 0,000 mm 0,0 UV-I 0 W/m 15,4 km/h (3 Bft)
31.12.2012 03:34 15,3 C 8,3 C 6,2 C 86 % 1016,2 hPa 0,0 l/m 0 min 0 min 0,000 mm 0,0 UV-I 0 W/m 10,3 km/h (2 Bft)
31.12.2012 03:36 15,3 C 8,2 C 6,2 C 86 % 1016,1 hPa 0,0 l/m 0 min 0 min 0,000 mm 0,0 UV-I 0 W/m 18,0 km/h (3 Bft)
31.12.2012 03:38 15,3 C 8,3 C 6,2 C 86 % 1016,0 hPa 0,0 l/m 0 min 0 min 0,000 mm 0,0 UV-I 0 W/m 10,3 km/h (2 Bft)
31.12.2012 03:40 15,3 C 8,2 C 6,2 C 86 % 1016,0 hPa 0,0 l/m 0 min 0 min 0,000 mm 0,0 UV-I 0 W/m 10,3 km/h (2 Bft)
31.12.2012 03:42 15,4 C 8,2 C 6,2 C 86 % 1016,1 hPa 0,0 l/m 0 min 0 min 0,000 mm 0,0 UV-I 0 W/m 15,4 km/h (3 Bft)
31.12.2012 03:44 15,3 C 8,2 C 6,2 C 86 % 1015,9 hPa 0,0 l/m 0 min 0 min 0,000 mm 0,0 UV-I 0 W/m 18,0 km/h (3 Bft)
31.12.2012 03:46 15,3 C 8,2 C 6,2 C 86 % 1016,0 hPa 0,0 l/m 0 min 0 min 0,000 mm 0,0 UV-I 0 W/m 12,9 km/h (3 Bft)
31.12.2012 03:48 15,3 C 8,2 C 6,2 C 86 % 1016,0 hPa 0,0 l/m 0 min 0 min 0,000 mm 0,0 UV-I 0 W/m 12,9 km/h (3 Bft)
31.12.2012 03:50 15,3 C 8,2 C 6,2 C 86 % 1015,9 hPa 0,0 l/m 0 min 0 min 0,000 mm 0,0 UV-I 0 W/m 10,3 km/h (2 Bft)
31.12.2012 03:52 15,3 C 8,3 C 6,2 C 86 % 1015,8 hPa 0,0 l/m 0 min 0 min 0,000 mm 0,0 UV-I 0 W/m 12,9 km/h (3 Bft)
31.12.2012 03:54 15,3 C 8,2 C 6,8 C 86 % 1015,8 hPa 0,0 l/m 0 min 0 min 0,000 mm 0,0 UV-I 0 W/m 7,7 km/h (2 Bft)
31.12.2012 03:56 15,3 C 8,3 C 6,8 C 86 % 1015,8 hPa 0,0 l/m 0 min 0 min 0,000 mm 0,0 UV-I 0 W/m 15,4 km/h (3 Bft)
31.12.2012 03:58 15,3 C 8,3 C 6,2 C 86 % 1015,8 hPa 0,0 l/m 0 min 0 min 0,000 mm 0,0 UV-I 0 W/m 10,3 km/h (2 Bft)
31.12.2012 04:00 15,3 C 8,3 C 6,2 C 86 % 1015,8 hPa 0,0 l/m 0 min 0 min 0,026 mm 0,0 UV-I 0 W/m 20,6 km/h (4 Bft)
31.12.2012 04:02 15,3 C 8,3 C 6,8 C 86 % 1015,8 hPa 0,0 l/m 0 min 0 min 0,000 mm 0,0 UV-I 0 W/m 23,2 km/h (4 Bft)
31.12.2012 04:06 15,3 C 8,3 C 6,8 C 86 % 1015,7 hPa 0,0 l/m 0 min 0 min 0,000 mm 0,0 UV-I 0 W/m 23,2 km/h (4 Bft)
31.12.2012 04:08 15,3 C 8,3 C 6,8 C 86 % 1015,8 hPa 0,0 l/m 0 min 0 min 0,000 mm 0,0 UV-I 0 W/m 18,0 km/h (3 Bft)
31.12.2012 04:10 15,3 C 8,3 C 6,2 C 86 % 1015,8 hPa 0,0 l/m 0 min 0 min 0,000 mm 0,0 UV-I 0 W/m 12,9 km/h (3 Bft)
31.12.2012 04:12 15,3 C 8,3 C 6,2 C 85 % 1015,6 hPa 0,0 l/m 0 min 0 min 0,000 mm 0,0 UV-I 0 W/m 12,9 km/h (3 Bft)
31.12.2012 04:14 15,2 C 8,3 C 6,2 C 85 % 1015,6 hPa 0,0 l/m 0 min 0 min 0,000 mm 0,0 UV-I 0 W/m 15,4 km/h (3 Bft)
31.12.2012 04:16 15,3 C 8,3 C 6,2 C 85 % 1015,6 hPa 0,0 l/m 0 min 0 min 0,000 mm 0,0 UV-I 0 W/m 10,3 km/h (2 Bft)
31.12.2012 04:18 15,3 C 8,3 C 6,2 C 85 % 1015,6 hPa 0,0 l/m 0 min 0 min 0,000 mm 0,0 UV-I 0 W/m 7,7 km/h (2 Bft)
31.12.2012 04:20 15,3 C 8,3 C 6,2 C 85 % 1015,6 hPa 0,0 l/m 0 min 0 min 0,000 mm 0,0 UV-I 0 W/m 7,7 km/h (2 Bft)
31.12.2012 04:22 15,3 C 8,3 C 6,2 C 85 % 1015,7 hPa 0,0 l/m 0 min 0 min 0,000 mm 0,0 UV-I 0 W/m 7,7 km/h (2 Bft)
31.12.2012 04:24 15,3 C 8,3 C 6,2 C 85 % 1015,6 hPa 0,0 l/m 0 min 0 min 0,000 mm 0,0 UV-I 0 W/m 12,9 km/h (3 Bft)
31.12.2012 04:26 15,3 C 8,3 C 6,2 C 85 % 1015,6 hPa 0,0 l/m 0 min 0 min 0,000 mm 0,0 UV-I 0 W/m 12,9 km/h (3 Bft)
31.12.2012 04:28 15,3 C 8,3 C 6,2 C 85 % 1015,7 hPa 0,0 l/m 0 min 0 min 0,000 mm 0,0 UV-I 0 W/m 18,0 km/h (3 Bft)
31.12.2012 04:30 15,3 C 8,3 C 6,8 C 85 % 1015,6 hPa 0,0 l/m 0 min 0 min 0,000 mm 0,0 UV-I 0 W/m 7,7 km/h (2 Bft)
31.12.2012 04:32 15,3 C 8,3 C 6,2 C 85 % 1015,6 hPa 0,0 l/m 0 min 0 min 0,000 mm 0,0 UV-I 0 W/m 12,9 km/h (3 Bft)
31.12.2012 04:34 15,3 C 8,3 C 6,2 C 85 % 1015,7 hPa 0,0 l/m 0 min 0 min 0,000 mm 0,0 UV-I 0 W/m 25,7 km/h (4 Bft)
31.12.2012 04:36 15,3 C 8,3 C 6,8 C 85 % 1015,6 hPa 0,0 l/m 0 min 0 min 0,000 mm 0,0 UV-I 0 W/m 18,0 km/h (3 Bft)
31.12.2012 04:38 15,3 C 8,3 C 6,8 C 85 % 1015,6 hPa 0,0 l/m 0 min 0 min 0,000 mm 0,0 UV-I 0 W/m 28,3 km/h (4 Bft)
31.12.2012 04:40 15,3 C 8,3 C 6,8 C 85 % 1015,6 hPa 0,0 l/m 0 min 0 min 0,000 mm 0,0 UV-I 0 W/m 20,6 km/h (4 Bft)
31.12.2012 04:42 15,3 C 8,3 C 6,8 C 85 % 1015,5 hPa 0,0 l/m 0 min 0 min 0,000 mm 0,0 UV-I 0 W/m 23,2 km/h (4 Bft)
31.12.2012 04:44 15,2 C 8,3 C 6,8 C 85 % 1015,5 hPa 0,0 l/m 0 min 0 min 0,000 mm 0,0 UV-I 0 W/m 10,3 km/h (2 Bft)
31.12.2012 04:46 15,2 C 8,3 C 6,8 C 85 % 1015,5 hPa 0,0 l/m 0 min 0 min 0,000 mm 0,0 UV-I 0 W/m 30,9 km/h (5 Bft)
31.12.2012 04:48 15,2 C 8,3 C 6,8 C 85 % 1015,4 hPa 0,0 l/m 0 min 0 min 0,000 mm 0,0 UV-I 0 W/m 23,2 km/h (4 Bft)
31.12.2012 04:50 15,3 C 8,3 C 6,8 C 85 % 1015,4 hPa 0,0 l/m 0 min 0 min 0,000 mm 0,0 UV-I 0 W/m 25,7 km/h (4 Bft)
31.12.2012 04:52 15,3 C 8,3 C 6,8 C 85 % 1015,4 hPa 0,0 l/m 0 min 0 min 0,000 mm 0,0 UV-I 0 W/m 18,0 km/h (3 Bft)
31.12.2012 04:54 15,3 C 8,3 C 6,8 C 85 % 1015,3 hPa 0,0 l/m 0 min 0 min 0,000 mm 0,0 UV-I 0 W/m 18,0 km/h (3 Bft)
31.12.2012 04:56 15,2 C 8,3 C 6,8 C 85 % 1015,4 hPa 0,0 l/m 0 min 0 min 0,000 mm 0,0 UV-I 0 W/m 15,4 km/h (3 Bft)
31.12.2012 04:58 15,2 C 8,3 C 6,8 C 85 % 1015,3 hPa 0,0 l/m 0 min 0 min 0,000 mm 0,0 UV-I 0 W/m 12,9 km/h (3 Bft)
31.12.2012 05:00 15,2 C 8,3 C 6,8 C 85 % 1015,3 hPa 0,0 l/m 0 min 0 min 0,025 mm 0,0 UV-I 0 W/m 28,3 km/h (4 Bft)
31.12.2012 05:02 15,2 C 8,3 C 6,8 C 85 % 1015,2 hPa 0,0 l/m 0 min 0 min 0,000 mm 0,0 UV-I 0 W/m 28,3 km/h (4 Bft)
31.12.2012 05:06 15,3 C 8,3 C 6,8 C 85 % 1015,4 hPa 0,0 l/m 0 min 0 min 0,000 mm 0,0 UV-I 0 W/m 18,0 km/h (3 Bft)
31.12.2012 05:08 15,3 C 8,3 C 6,8 C 85 % 1015,2 hPa 0,0 l/m 0 min 0 min 0,000 mm 0,0 UV-I 0 W/m 10,3 km/h (2 Bft)
31.12.2012 05:10 15,3 C 8,3 C 6,2 C 85 % 1015,2 hPa 0,0 l/m 0 min 0 min 0,000 mm 0,0 UV-I 0 W/m 10,3 km/h (2 Bft)
31.12.2012 05:12 15,2 C 8,2 C 6,2 C 85 % 1015,1 hPa 0,0 l/m 0 min 0 min 0,000 mm 0,0 UV-I 0 W/m 23,2 km/h (4 Bft)
31.12.2012 05:14 15,2 C 8,2 C 6,2 C 85 % 1015,1 hPa 0,0 l/m 0 min 0 min 0,000 mm 0,0 UV-I 0 W/m 25,7 km/h (4 Bft)
31.12.2012 05:16 15,2 C 8,2 C 6,8 C 85 % 1015,1 hPa 0,0 l/m 0 min 0 min 0,000 mm 0,0 UV-I 0 W/m 12,9 km/h (3 Bft)
31.12.2012 05:18 15,2 C 8,2 C 6,8 C 85 % 1015,0 hPa 0,0 l/m 0 min 0 min 0,000 mm 0,0 UV-I 0 W/m 20,6 km/h (4 Bft)
31.12.2012 05:20 15,2 C 8,2 C 6,8 C 85 % 1014,9 hPa 0,0 l/m 0 min 0 min 0,000 mm 0,0 UV-I 0 W/m 25,7 km/h (4 Bft)
31.12.2012 05:22 15,2 C 8,2 C 6,8 C 85 % 1014,9 hPa 0,0 l/m 0 min 0 min 0,000 mm 0,0 UV-I 0 W/m 18,0 km/h (3 Bft)
31.12.2012 05:24 15,3 C 8,2 C 6,8 C 85 % 1014,9 hPa 0,0 l/m 0 min 0 min 0,000 mm 0,0 UV-I 0 W/m 33,5 km/h (5 Bft)
31.12.2012 05:26 15,3 C 8,2 C 6,8 C 85 % 1014,7 hPa 0,0 l/m 0 min 0 min 0,000 mm 0,0 UV-I 0 W/m 30,9 km/h (5 Bft)
31.12.2012 05:28 15,2 C 8,2 C 6,2 C 85 % 1014,8 hPa 0,0 l/m 0 min 0 min 0,000 mm 0,0 UV-I 0 W/m 18,0 km/h (3 Bft)
31.12.2012 05:30 15,2 C 8,2 C 6,8 C 85 % 1014,9 hPa 0,0 l/m 0 min 0 min 0,000 mm 0,0 UV-I 0 W/m 25,7 km/h (4 Bft)
31.12.2012 05:32 15,2 C 8,2 C 6,8 C 85 % 1014,9 hPa 0,0 l/m 0 min 0 min 0,000 mm 0,0 UV-I 0 W/m 15,4 km/h (3 Bft)
31.12.2012 05:34 15,2 C 8,2 C 6,8 C 85 % 1015,1 hPa 0,0 l/m 0 min 0 min 0,000 mm 0,0 UV-I 0 W/m 12,9 km/h (3 Bft)
31.12.2012 05:36 15,2 C 8,2 C 6,8 C 85 % 1014,9 hPa 0,0 l/m 0 min 0 min 0,000 mm 0,0 UV-I 0 W/m 23,2 km/h (4 Bft)
31.12.2012 05:38 15,2 C 8,2 C 6,8 C 85 % 1015,2 hPa 0,0 l/m 0 min 0 min 0,000 mm 0,0 UV-I 0 W/m 23,2 km/h (4 Bft)
31.12.2012 05:40 15,3 C 8,3 C 6,8 C 85 % 1015,4 hPa 0,0 l/m 0 min 0 min 0,000 mm 0,0 UV-I 0 W/m 33,5 km/h (5 Bft)
31.12.2012 05:42 15,3 C 8,3 C 6,8 C 85 % 1015,1 hPa 0,0 l/m 0 min 0 min 0,000 mm 0,0 UV-I 0 W/m 25,7 km/h (4 Bft)
31.12.2012 05:44 15,2 C 8,3 C 6,8 C 85 % 1015,0 hPa 0,0 l/m 0 min 0 min 0,000 mm 0,0 UV-I 0 W/m 7,7 km/h (2 Bft)
31.12.2012 05:46 15,2 C 8,3 C 6,8 C 85 % 1014,9 hPa 0,0 l/m 0 min 0 min 0,000 mm 0,0 UV-I 0 W/m 18,0 km/h (3 Bft)
31.12.2012 05:48 15,2 C 8,3 C 6,8 C 84 % 1014,9 hPa 0,0 l/m 0 min 0 min 0,000 mm 0,0 UV-I 0 W/m 15,4 km/h (3 Bft)
31.12.2012 05:50 15,2 C 8,3 C 6,8 C 84 % 1015,1 hPa 0,0 l/m 0 min 0 min 0,000 mm 0,0 UV-I 0 W/m 15,4 km/h (3 Bft)
31.12.2012 05:52 15,2 C 8,3 C 6,8 C 84 % 1015,0 hPa 0,0 l/m 0 min 0 min 0,000 mm 0,0 UV-I 0 W/m 30,9 km/h (5 Bft)
31.12.2012 05:54 15,2 C 8,3 C 6,2 C 84 % 1014,9 hPa 0,0 l/m 0 min 0 min 0,000 mm 0,0 UV-I 0 W/m 10,3 km/h (2 Bft)
31.12.2012 05:56 15,2 C 8,3 C 6,2 C 84 % 1014,9 hPa 0,0 l/m 0 min 0 min 0,000 mm 0,0 UV-I 0 W/m 15,4 km/h (3 Bft)
31.12.2012 05:58 15,3 C 8,2 C 6,2 C 85 % 1014,8 hPa 0,0 l/m 0 min 0 min 0,000 mm 0,0 UV-I 0 W/m 20,6 km/h (4 Bft)
31.12.2012 06:00 15,2 C 8,2 C 6,2 C 85 % 1014,9 hPa 0,0 l/m 0 min 0 min 0,025 mm 0,0 UV-I 0 W/m 18,0 km/h (3 Bft)
31.12.2012 06:02 15,2 C 8,2 C 6,2 C 85 % 1014,9 hPa 0,0 l/m 0 min 0 min 0,000 mm 0,0 UV-I 0 W/m 20,6 km/h (4 Bft)
31.12.2012 06:04 15,2 C 8,2 C 6,2 C 85 % 1014,8 hPa 0,0 l/m 0 min 0 min 0,000 mm 0,0 UV-I 0 W/m 23,2 km/h (4 Bft)
31.12.2012 06:06 15,2 C 8,2 C 6,2 C 85 % 1014,9 hPa 0,0 l/m 0 min 0 min 0,000 mm 0,0 UV-I 0 W/m 20,6 km/h (4 Bft)
31.12.2012 06:08 15,2 C 8,2 C 6,2 C 85 % 1014,9 hPa 0,0 l/m 0 min 0 min 0,000 mm 0,0 UV-I 0 W/m 20,6 km/h (4 Bft)
31.12.2012 06:10 15,2 C 8,1 C 6,2 C 85 % 1014,8 hPa 0,0 l/m 0 min 0 min 0,000 mm 0,0 UV-I 0 W/m 12,9 km/h (3 Bft)
31.12.2012 06:12 15,2 C 8,1 C 6,2 C 85 % 1014,8 hPa 0,0 l/m 0 min 0 min 0,000 mm 0,0 UV-I 0 W/m 20,6 km/h (4 Bft)
31.12.2012 06:14 15,3 C 8,1 C 6,2 C 85 % 1014,7 hPa 0,0 l/m 0 min 0 min 0,000 mm 0,0 UV-I 0 W/m 15,4 km/h (3 Bft)
31.12.2012 06:16 15,3 C 8,1 C 6,2 C 85 % 1014,8 hPa 0,0 l/m 0 min 0 min 0,000 mm 0,0 UV-I 0 W/m 10,3 km/h (2 Bft)
31.12.2012 06:18 15,2 C 8,1 C 6,2 C 85 % 1014,7 hPa 0,0 l/m 0 min 0 min 0,000 mm 0,0 UV-I 0 W/m 10,3 km/h (2 Bft)
31.12.2012 06:20 15,2 C 8,1 C 6,2 C 85 % 1014,6 hPa 0,0 l/m 0 min 0 min 0,000 mm 0,0 UV-I 0 W/m 20,6 km/h (4 Bft)
31.12.2012 06:22 15,2 C 8,0 C 6,2 C 85 % 1014,7 hPa 0,0 l/m 0 min 0 min 0,000 mm 0,0 UV-I 0 W/m 18,0 km/h (3 Bft)
31.12.2012 06:24 15,2 C 8,0 C 5,7 C 85 % 1014,7 hPa 0,0 l/m 0 min 0 min 0,000 mm 0,0 UV-I 0 W/m 12,9 km/h (3 Bft)
31.12.2012 06:26 15,2 C 7,9 C 6,2 C 85 % 1014,8 hPa 0,0 l/m 0 min 0 min 0,000 mm 0,0 UV-I 0 W/m 15,4 km/h (3 Bft)
31.12.2012 06:28 15,2 C 7,9 C 6,2 C 85 % 1014,6 hPa 0,0 l/m 0 min 0 min 0,000 mm 0,0 UV-I 0 W/m 12,9 km/h (3 Bft)
31.12.2012 06:30 15,2 C 7,9 C 6,2 C 85 % 1014,7 hPa 0,0 l/m 0 min 0 min 0,000 mm 0,0 UV-I 0 W/m 10,3 km/h (2 Bft)
31.12.2012 06:32 15,3 C 7,9 C 6,2 C 85 % 1014,7 hPa 0,0 l/m 0 min 0 min 0,000 mm 0,0 UV-I 0 W/m 12,9 km/h (3 Bft)
31.12.2012 06:34 15,3 C 7,9 C 5,7 C 85 % 1014,8 hPa 0,0 l/m 0 min 0 min 0,000 mm 0,0 UV-I 0 W/m 7,7 km/h (2 Bft)
31.12.2012 06:36 15,2 C 7,9 C 5,7 C 85 % 1014,8 hPa 0,0 l/m 0 min 0 min 0,000 mm 0,0 UV-I 0 W/m 10,3 km/h (2 Bft)
31.12.2012 06:38 15,2 C 7,8 C 5,7 C 85 % 1014,8 hPa 0,0 l/m 0 min 0 min 0,000 mm 0,0 UV-I 0 W/m 18,0 km/h (3 Bft)
31.12.2012 06:40 15,2 C 7,8 C 5,7 C 85 % 1014,8 hPa 0,0 l/m 0 min 0 min 0,000 mm 0,0 UV-I 0 W/m 18,0 km/h (3 Bft)
31.12.2012 06:42 15,2 C 7,8 C 5,7 C 85 % 1014,8 hPa 0,0 l/m 0 min 0 min 0,000 mm 0,0 UV-I 0 W/m 15,4 km/h (3 Bft)
31.12.2012 06:44 15,2 C 7,8 C 6,2 C 86 % 1014,8 hPa 0,0 l/m 0 min 0 min 0,000 mm 0,0 UV-I 0 W/m 12,9 km/h (3 Bft)
31.12.2012 06:46 15,2 C 7,8 C 5,7 C 86 % 1014,9 hPa 0,0 l/m 0 min 0 min 0,000 mm 0,0 UV-I 0 W/m 23,2 km/h (4 Bft)
31.12.2012 06:48 15,3 C 7,8 C 6,2 C 86 % 1014,6 hPa 0,0 l/m 0 min 0 min 0,000 mm 0,0 UV-I 0 W/m 18,0 km/h (3 Bft)
31.12.2012 06:50 15,3 C 7,8 C 5,7 C 86 % 1014,7 hPa 0,0 l/m 0 min 0 min 0,000 mm 0,0 UV-I 0 W/m 12,9 km/h (3 Bft)
31.12.2012 06:52 15,3 C 7,8 C 5,7 C 86 % 1014,6 hPa 0,0 l/m 0 min 0 min 0,000 mm 0,0 UV-I 0 W/m 15,4 km/h (3 Bft)
31.12.2012 06:54 15,3 C 7,8 C 6,2 C 86 % 1014,6 hPa 0,0 l/m 0 min 0 min 0,000 mm 0,0 UV-I 0 W/m 20,6 km/h (4 Bft)
31.12.2012 06:56 15,3 C 7,8 C 5,7 C 86 % 1014,6 hPa 0,0 l/m 0 min 0 min 0,000 mm 0,0 UV-I 0 W/m 18,0 km/h (3 Bft)
31.12.2012 06:58 15,3 C 7,8 C 5,7 C 86 % 1014,5 hPa 0,0 l/m 0 min 0 min 0,000 mm 0,0 UV-I 0 W/m 10,3 km/h (2 Bft)
31.12.2012 07:00 15,3 C 7,8 C 5,7 C 86 % 1014,5 hPa 0,0 l/m 0 min 0 min 0,026 mm 0,0 UV-I 0 W/m 7,7 km/h (2 Bft)
31.12.2012 07:02 15,3 C 7,8 C 5,7 C 86 % 1014,4 hPa 0,0 l/m 0 min 0 min 0,000 mm 0,0 UV-I 0 W/m 18,0 km/h (3 Bft)
31.12.2012 07:04 15,3 C 7,8 C 5,7 C 86 % 1014,5 hPa 0,0 l/m 0 min 0 min 0,000 mm 0,0 UV-I 0 W/m 10,3 km/h (2 Bft)
31.12.2012 07:06 15,4 C 7,8 C 5,7 C 86 % 1014,5 hPa 0,0 l/m 0 min 0 min 0,000 mm 0,0 UV-I 0 W/m 15,4 km/h (3 Bft)
31.12.2012 07:08 15,3 C 7,7 C 5,7 C 86 % 1014,6 hPa 0,0 l/m 0 min 0 min 0,000 mm 0,0 UV-I 0 W/m 25,7 km/h (4 Bft)
31.12.2012 07:10 15,3 C 7,7 C 5,7 C 86 % 1014,5 hPa 0,0 l/m 0 min 0 min 0,000 mm 0,0 UV-I 0 W/m 15,4 km/h (3 Bft)
31.12.2012 07:12 15,3 C 7,7 C 5,7 C 86 % 1014,5 hPa 0,0 l/m 0 min 0 min 0,000 mm 0,0 UV-I 0 W/m 15,4 km/h (3 Bft)
31.12.2012 07:14 15,2 C 7,7 C 5,7 C 86 % 1014,5 hPa 0,0 l/m 0 min 0 min 0,000 mm 0,0 UV-I 0 W/m 15,4 km/h (3 Bft)
31.12.2012 07:16 15,2 C 7,7 C 6,2 C 86 % 1014,4 hPa 0,0 l/m 0 min 0 min 0,000 mm 0,0 UV-I 0 W/m 30,9 km/h (5 Bft)
31.12.2012 07:18 15,2 C 7,7 C 6,2 C 86 % 1014,5 hPa 0,0 l/m 0 min 0 min 0,000 mm 0,0 UV-I 0 W/m 25,7 km/h (4 Bft)
31.12.2012 07:20 15,2 C 7,7 C 6,2 C 86 % 1014,5 hPa 0,0 l/m 0 min 0 min 0,000 mm 0,0 UV-I 0 W/m 20,6 km/h (4 Bft)
31.12.2012 07:22 15,2 C 7,7 C 5,7 C 86 % 1014,4 hPa 0,0 l/m 0 min 0 min 0,000 mm 0,0 UV-I 0 W/m 10,3 km/h (2 Bft)
31.12.2012 07:24 15,3 C 7,7 C 6,2 C 86 % 1014,5 hPa 0,0 l/m 0 min 0 min 0,000 mm 0,0 UV-I 0 W/m 10,3 km/h (2 Bft)
31.12.2012 07:26 15,2 C 7,7 C 5,7 C 86 % 1014,5 hPa 0,0 l/m 0 min 0 min 0,000 mm 0,0 UV-I 0 W/m 12,9 km/h (3 Bft)
31.12.2012 07:28 15,2 C 7,7 C 5,7 C 86 % 1014,5 hPa 0,0 l/m 0 min 0 min 0,000 mm 0,0 UV-I 0 W/m 18,0 km/h (3 Bft)
31.12.2012 07:30 15,2 C 7,7 C 6,2 C 86 % 1014,5 hPa 0,0 l/m 0 min 0 min 0,000 mm 0,0 UV-I 0 W/m 20,6 km/h (4 Bft)
31.12.2012 07:32 15,2 C 7,7 C 6,2 C 86 % 1014,5 hPa 0,0 l/m 0 min 0 min 0,000 mm 0,0 UV-I 0 W/m 20,6 km/h (4 Bft)
31.12.2012 07:34 15,2 C 7,7 C 6,2 C 86 % 1014,4 hPa 0,0 l/m 0 min 0 min 0,000 mm 0,0 UV-I 0 W/m 23,2 km/h (4 Bft)
31.12.2012 07:36 15,1 C 7,8 C 6,2 C 86 % 1014,6 hPa 0,0 l/m 0 min 0 min 0,000 mm 0,0 UV-I 0 W/m 20,6 km/h (4 Bft)
31.12.2012 07:38 15,1 C 7,8 C 6,2 C 86 % 1014,4 hPa 0,0 l/m 0 min 0 min 0,000 mm 0,0 UV-I 0 W/m 25,7 km/h (4 Bft)
31.12.2012 07:40 15,3 C 7,8 C 6,2 C 86 % 1014,5 hPa 0,0 l/m 0 min 0 min 0,000 mm 0,0 UV-I 0 W/m 12,9 km/h (3 Bft)
31.12.2012 07:42 15,2 C 7,8 C 6,2 C 86 % 1014,4 hPa 0,0 l/m 0 min 0 min 0,000 mm 0,0 UV-I 0 W/m 15,4 km/h (3 Bft)
31.12.2012 07:44 15,2 C 7,8 C 6,2 C 86 % 1014,4 hPa 0,0 l/m 0 min 0 min 0,000 mm 0,0 UV-I 0 W/m 15,4 km/h (3 Bft)
31.12.2012 07:46 15,2 C 7,8 C 6,2 C 86 % 1014,4 hPa 0,0 l/m 0 min 0 min 0,000 mm 0,0 UV-I 0 W/m 15,4 km/h (3 Bft)
31.12.2012 07:48 15,1 C 7,8 C 6,2 C 86 % 1014,3 hPa 0,0 l/m 0 min 0 min 0,000 mm 0,0 UV-I 0 W/m 15,4 km/h (3 Bft)
31.12.2012 07:50 15,1 C 7,8 C 6,2 C 86 % 1014,3 hPa 0,0 l/m 0 min 0 min 0,000 mm 0,0 UV-I 0 W/m 28,3 km/h (4 Bft)
31.12.2012 07:52 15,1 C 7,8 C 6,2 C 86 % 1014,3 hPa 0,0 l/m 0 min 0 min 0,000 mm 0,0 UV-I 0 W/m 12,9 km/h (3 Bft)
31.12.2012 07:54 15,1 C 7,8 C 6,2 C 86 % 1014,3 hPa 0,0 l/m 0 min 0 min 0,000 mm 0,0 UV-I 0 W/m 15,4 km/h (3 Bft)
31.12.2012 07:56 15,2 C 7,8 C 6,2 C 86 % 1014,3 hPa 0,0 l/m 0 min 0 min 0,000 mm 0,0 UV-I 0 W/m 28,3 km/h (4 Bft)
31.12.2012 07:58 15,2 C 7,9 C 6,2 C 86 % 1014,3 hPa 0,0 l/m 0 min 0 min 0,000 mm 0,0 UV-I 0 W/m 25,7 km/h (4 Bft)
31.12.2012 08:00 15,2 C 7,9 C 6,2 C 86 % 1014,3 hPa 0,0 l/m 0 min 0 min 0,025 mm 0,0 UV-I 0 W/m 18,0 km/h (3 Bft)
31.12.2012 08:02 15,2 C 7,9 C 6,2 C 86 % 1014,2 hPa 0,0 l/m 0 min 0 min 0,000 mm 0,0 UV-I 0 W/m 18,0 km/h (3 Bft)
31.12.2012 08:04 15,2 C 7,9 C 6,2 C 86 % 1014,2 hPa 0,0 l/m 0 min 0 min 0,000 mm 0,0 UV-I 0 W/m 12,9 km/h (3 Bft)
31.12.2012 08:06 15,2 C 7,9 C 6,2 C 86 % 1014,2 hPa 0,0 l/m 0 min 0 min 0,000 mm 0,0 UV-I 0 W/m 20,6 km/h (4 Bft)
31.12.2012 08:08 15,2 C 7,9 C 6,2 C 86 % 1014,2 hPa 0,0 l/m 0 min 0 min 0,000 mm 0,0 UV-I 0 W/m 15,4 km/h (3 Bft)
31.12.2012 08:10 15,2 C 7,9 C 6,2 C 86 % 1014,1 hPa 0,0 l/m 0 min 0 min 0,000 mm 0,0 UV-I 0 W/m 30,9 km/h (5 Bft)
31.12.2012 08:12 15,2 C 7,9 C 6,2 C 86 % 1014,2 hPa 0,0 l/m 0 min 0 min 0,000 mm 0,0 UV-I 0 W/m 12,9 km/h (3 Bft)
31.12.2012 08:14 15,3 C 7,9 C 6,2 C 86 % 1014,1 hPa 0,0 l/m 0 min 0 min 0,000 mm 0,0 UV-I 0 W/m 12,9 km/h (3 Bft)
31.12.2012 08:16 15,3 C 7,9 C 6,2 C 86 % 1014,1 hPa 0,0 l/m 0 min 0 min 0,000 mm 0,0 UV-I 0 W/m 23,2 km/h (4 Bft)
31.12.2012 08:18 15,2 C 7,9 C 6,2 C 86 % 1014,2 hPa 0,0 l/m 0 min 0 min 0,000 mm 0,0 UV-I 0 W/m 28,3 km/h (4 Bft)
31.12.2012 08:20 15,2 C 7,9 C 6,2 C 86 % 1014,1 hPa 0,0 l/m 0 min 0 min 0,000 mm 0,0 UV-I 0 W/m 18,0 km/h (3 Bft)
31.12.2012 08:22 15,1 C 7,9 C 6,2 C 86 % 1014,0 hPa 0,0 l/m 0 min 0 min 0,000 mm 0,0 UV-I 0 W/m 15,4 km/h (3 Bft)
31.12.2012 08:24 15,1 C 8,0 C 6,2 C 86 % 1014,1 hPa 0,0 l/m 0 min 0 min 0,000 mm 0,0 UV-I 0 W/m 18,0 km/h (3 Bft)
31.12.2012 08:26 15,1 C 8,0 C 6,2 C 86 % 1013,9 hPa 0,0 l/m 0 min 0 min 0,000 mm 0,0 UV-I 0 W/m 25,7 km/h (4 Bft)
31.12.2012 08:28 15,1 C 8,1 C 6,2 C 86 % 1014,0 hPa 0,0 l/m 0 min 0 min 0,000 mm 0,0 UV-I 0 W/m 20,6 km/h (4 Bft)
31.12.2012 08:30 15,2 C 8,1 C 6,2 C 86 % 1014,1 hPa 0,0 l/m 0 min 0 min 0,000 mm 0,0 UV-I 0 W/m 15,4 km/h (3 Bft)
31.12.2012 08:32 15,2 C 8,1 C 6,2 C 86 % 1014,0 hPa 0,0 l/m 0 min 0 min 0,000 mm 0,0 UV-I 0 W/m 12,9 km/h (3 Bft)
31.12.2012 08:34 15,2 C 8,1 C 6,2 C 86 % 1014,0 hPa 0,0 l/m 0 min 0 min 0,000 mm 0,0 UV-I 0 W/m 10,3 km/h (2 Bft)
31.12.2012 08:36 15,1 C 8,1 C 6,8 C 86 % 1014,0 hPa 0,0 l/m 0 min 0 min 0,000 mm 0,0 UV-I 0 W/m 20,6 km/h (4 Bft)
31.12.2012 08:38 15,1 C 8,1 C 6,8 C 86 % 1014,1 hPa 0,0 l/m 0 min 0 min 0,000 mm 0,0 UV-I 0 W/m 18,0 km/h (3 Bft)
31.12.2012 08:40 15,1 C 8,1 C 6,8 C 86 % 1014,0 hPa 0,0 l/m 0 min 0 min 0,000 mm 0,0 UV-I 0 W/m 10,3 km/h (2 Bft)
31.12.2012 08:42 15,1 C 8,1 C 6,8 C 86 % 1014,2 hPa 0,0 l/m 0 min 0 min 0,000 mm 0,0 UV-I 0 W/m 20,6 km/h (4 Bft)
31.12.2012 08:44 15,1 C 8,2 C 6,8 C 86 % 1014,0 hPa 0,0 l/m 0 min 0 min 0,000 mm 0,0 UV-I 0 W/m 7,7 km/h (2 Bft)
31.12.2012 08:46 15,1 C 8,2 C 6,8 C 86 % 1014,0 hPa 0,0 l/m 0 min 0 min 0,000 mm 0,0 UV-I 0 W/m 10,3 km/h (2 Bft)
31.12.2012 08:48 15,3 C 8,2 C 6,8 C 86 % 1013,9 hPa 0,0 l/m 0 min 0 min 0,000 mm 0,0 UV-I 0 W/m 18,0 km/h (3 Bft)
31.12.2012 08:50 15,2 C 8,2 C 6,8 C 86 % 1013,9 hPa 0,0 l/m 0 min 0 min 0,000 mm 0,0 UV-I 0 W/m 18,0 km/h (3 Bft)
31.12.2012 08:52 15,2 C 8,2 C 6,8 C 86 % 1013,9 hPa 0,0 l/m 0 min 0 min 0,000 mm 0,0 UV-I 5 W/m 23,2 km/h (4 Bft)
31.12.2012 08:54 15,2 C 8,2 C 6,8 C 86 % 1013,9 hPa 0,0 l/m 0 min 0 min 0,000 mm 0,0 UV-I 5 W/m 20,6 km/h (4 Bft)
31.12.2012 08:56 15,2 C 8,2 C 6,8 C 85 % 1013,9 hPa 0,0 l/m 0 min 0 min 0,000 mm 0,0 UV-I 7 W/m 18,0 km/h (3 Bft)
31.12.2012 08:58 15,2 C 8,2 C 6,8 C 85 % 1013,8 hPa 0,0 l/m 0 min 0 min 0,000 mm 0,0 UV-I 7 W/m 12,9 km/h (3 Bft)
31.12.2012 09:00 15,2 C 8,2 C 6,8 C 85 % 1013,8 hPa 0,0 l/m 0 min 0 min 0,000 mm 0,0 UV-I 7 W/m 20,6 km/h (4 Bft)
31.12.2012 09:02 15,2 C 8,3 C 6,8 C 85 % 1013,7 hPa 0,0 l/m 0 min 0 min 0,000 mm 0,0 UV-I 9 W/m 15,4 km/h (3 Bft)
31.12.2012 09:04 15,3 C 8,3 C 6,8 C 85 % 1013,8 hPa 0,0 l/m 0 min 0 min 0,000 mm 0,0 UV-I 9 W/m 10,3 km/h (2 Bft)
31.12.2012 09:06 15,3 C 8,3 C 6,8 C 85 % 1013,7 hPa 0,0 l/m 0 min 0 min 0,000 mm 0,0 UV-I 11 W/m 12,9 km/h (3 Bft)
31.12.2012 09:08 15,3 C 8,3 C 6,8 C 85 % 1014,0 hPa 0,0 l/m 0 min 0 min 0,000 mm 0,0 UV-I 11 W/m 15,4 km/h (3 Bft)
31.12.2012 09:10 15,2 C 8,3 C 6,8 C 85 % 1014,0 hPa 0,0 l/m 0 min 0 min 0,000 mm 0,0 UV-I 12 W/m 23,2 km/h (4 Bft)
31.12.2012 09:12 15,2 C 8,3 C 6,8 C 85 % 1013,8 hPa 0,0 l/m 0 min 0 min 0,000 mm 0,0 UV-I 14 W/m 5,1 km/h (1 Bft)
31.12.2012 09:14 15,2 C 8,3 C 6,8 C 85 % 1013,8 hPa 0,0 l/m 0 min 0 min 0,000 mm 0,0 UV-I 16 W/m 23,2 km/h (4 Bft)
31.12.2012 09:16 15,2 C 8,4 C 6,8 C 85 % 1013,7 hPa 0,0 l/m 0 min 0 min 0,000 mm 0,0 UV-I 16 W/m 23,2 km/h (4 Bft)
31.12.2012 09:18 15,2 C 8,4 C 6,8 C 85 % 1013,8 hPa 0,0 l/m 0 min 0 min 0,000 mm 0,0 UV-I 18 W/m 23,2 km/h (4 Bft)
31.12.2012 09:20 15,2 C 8,4 C 6,8 C 84 % 1013,7 hPa 0,0 l/m 0 min 0 min 0,000 mm 0,0 UV-I 18 W/m 30,9 km/h (5 Bft)
31.12.2012 09:22 15,3 C 8,4 C 6,8 C 84 % 1013,7 hPa 0,0 l/m 0 min 0 min 0,000 mm 0,0 UV-I 18 W/m 15,4 km/h (3 Bft)
31.12.2012 09:24 15,3 C 8,5 C 6,8 C 84 % 1013,8 hPa 0,0 l/m 0 min 0 min 0,000 mm 0,0 UV-I 18 W/m 15,4 km/h (3 Bft)
31.12.2012 09:26 15,2 C 8,5 C 7,3 C 84 % 1013,7 hPa 0,0 l/m 0 min 0 min 0,000 mm 0,0 UV-I 18 W/m 28,3 km/h (4 Bft)
31.12.2012 09:28 15,2 C 8,5 C 7,3 C 84 % 1013,7 hPa 0,0 l/m 0 min 0 min 0,000 mm 0,0 UV-I 19 W/m 5,1 km/h (1 Bft)
31.12.2012 09:30 15,2 C 8,6 C 7,3 C 84 % 1013,6 hPa 0,0 l/m 0 min 0 min 0,000 mm 0,0 UV-I 19 W/m 23,2 km/h (4 Bft)
31.12.2012 09:32 15,2 C 8,6 C 7,3 C 84 % 1013,7 hPa 0,0 l/m 0 min 0 min 0,000 mm 0,0 UV-I 19 W/m 25,7 km/h (4 Bft)
31.12.2012 09:34 15,2 C 8,6 C 7,3 C 84 % 1013,7 hPa 0,0 l/m 0 min 0 min 0,000 mm 0,0 UV-I 19 W/m 20,6 km/h (4 Bft)
31.12.2012 09:36 15,2 C 8,6 C 7,3 C 84 % 1013,7 hPa 0,0 l/m 0 min 0 min 0,000 mm 0,0 UV-I 19 W/m 23,2 km/h (4 Bft)
31.12.2012 09:38 15,3 C 8,6 C 7,3 C 84 % 1013,6 hPa 0,0 l/m 0 min 0 min 0,000 mm 0,0 UV-I 18 W/m 18,0 km/h (3 Bft)
31.12.2012 09:40 15,3 C 8,6 C 7,3 C 84 % 1013,6 hPa 0,0 l/m 0 min 0 min 0,000 mm 0,0 UV-I 16 W/m 18,0 km/h (3 Bft)
31.12.2012 09:42 15,2 C 8,6 C 7,3 C 84 % 1013,6 hPa 0,0 l/m 0 min 0 min 0,000 mm 0,0 UV-I 14 W/m 33,5 km/h (5 Bft)
31.12.2012 09:44 15,2 C 8,7 C 7,3 C 84 % 1013,5 hPa 0,0 l/m 0 min 0 min 0,000 mm 0,0 UV-I 14 W/m 12,9 km/h (3 Bft)
31.12.2012 09:46 15,2 C 8,7 C 7,3 C 84 % 1013,5 hPa 0,0 l/m 0 min 0 min 0,000 mm 0,0 UV-I 14 W/m 28,3 km/h (4 Bft)
31.12.2012 09:48 15,2 C 8,7 C 7,3 C 84 % 1013,6 hPa 0,0 l/m 0 min 0 min 0,000 mm 0,0 UV-I 14 W/m 28,3 km/h (4 Bft)
31.12.2012 09:50 15,2 C 8,7 C 7,3 C 84 % 1013,6 hPa 0,0 l/m 0 min 0 min 0,000 mm 0,0 UV-I 14 W/m 15,4 km/h (3 Bft)
31.12.2012 09:52 15,2 C 8,7 C 7,3 C 84 % 1013,6 hPa 0,0 l/m 0 min 0 min 0,000 mm 0,0 UV-I 16 W/m 18,0 km/h (3 Bft)
31.12.2012 09:54 15,2 C 8,7 C 7,3 C 83 % 1013,5 hPa 0,0 l/m 0 min 0 min 0,000 mm 0,0 UV-I 16 W/m 18,0 km/h (3 Bft)
31.12.2012 09:56 15,3 C 8,7 C 7,3 C 83 % 1013,6 hPa 0,0 l/m 0 min 0 min 0,000 mm 0,0 UV-I 18 W/m 15,4 km/h (3 Bft)
31.12.2012 09:58 15,3 C 8,8 C 7,3 C 83 % 1013,6 hPa 0,0 l/m 0 min 0 min 0,000 mm 0,0 UV-I 19 W/m 28,3 km/h (4 Bft)
31.12.2012 10:00 15,3 C 8,8 C 7,3 C 83 % 1013,6 hPa 0,0 l/m 0 min 0 min 0,026 mm 0,0 UV-I 19 W/m 18,0 km/h (3 Bft)
31.12.2012 10:02 15,2 C 8,8 C 7,3 C 83 % 1013,6 hPa 0,0 l/m 0 min 0 min 0,000 mm 0,0 UV-I 21 W/m 30,9 km/h (5 Bft)
31.12.2012 10:06 15,2 C 8,8 C 7,3 C 83 % 1013,6 hPa 0,0 l/m 0 min 0 min 0,000 mm 0,0 UV-I 21 W/m 20,6 km/h (4 Bft)
31.12.2012 10:08 15,2 C 8,8 C 7,3 C 83 % 1013,6 hPa 0,0 l/m 0 min 0 min 0,000 mm 0,0 UV-I 21 W/m 20,6 km/h (4 Bft)
31.12.2012 10:10 15,2 C 8,9 C 7,3 C 83 % 1013,6 hPa 0,0 l/m 0 min 0 min 0,000 mm 0,0 UV-I 23 W/m 28,3 km/h (4 Bft)
31.12.2012 10:12 15,3 C 8,9 C 7,3 C 83 % 1013,6 hPa 0,0 l/m 0 min 0 min 0,000 mm 0,0 UV-I 25 W/m 7,7 km/h (2 Bft)
31.12.2012 10:14 15,3 C 8,9 C 7,3 C 83 % 1013,6 hPa 0,0 l/m 0 min 0 min 0,000 mm 0,0 UV-I 26 W/m 25,7 km/h (4 Bft)
31.12.2012 10:16 15,3 C 8,9 C 7,3 C 83 % 1013,6 hPa 0,0 l/m 0 min 0 min 0,000 mm 0,0 UV-I 32 W/m 10,3 km/h (2 Bft)
31.12.2012 10:18 15,3 C 8,9 C 7,9 C 83 % 1013,5 hPa 0,0 l/m 0 min 0 min 0,000 mm 0,0 UV-I 35 W/m 25,7 km/h (4 Bft)
31.12.2012 10:20 15,2 C 8,9 C 7,9 C 83 % 1013,6 hPa 0,0 l/m 0 min 0 min 0,000 mm 0,0 UV-I 40 W/m 20,6 km/h (4 Bft)
31.12.2012 10:22 15,2 C 9,0 C 7,9 C 83 % 1013,7 hPa 0,0 l/m 0 min 0 min 0,000 mm 0,0 UV-I 46 W/m 18,0 km/h (3 Bft)
31.12.2012 10:24 15,2 C 9,0 C 7,9 C 82 % 1013,7 hPa 0,0 l/m 0 min 0 min 0,000 mm 0,0 UV-I 51 W/m 25,7 km/h (4 Bft)
31.12.2012 10:26 15,2 C 9,1 C 7,9 C 82 % 1013,7 hPa 0,0 l/m 0 min 0 min 0,000 mm 0,0 UV-I 56 W/m 23,2 km/h (4 Bft)
31.12.2012 10:28 15,2 C 9,1 C 7,9 C 82 % 1013,7 hPa 0,0 l/m 0 min 0 min 0,000 mm 0,0 UV-I 63 W/m 23,2 km/h (4 Bft)
31.12.2012 10:30 15,3 C 9,1 C 7,9 C 82 % 1013,7 hPa 0,0 l/m 0 min 0 min 0,000 mm 0,0 UV-I 70 W/m 20,6 km/h (4 Bft)
31.12.2012 10:32 15,3 C 9,2 C 7,9 C 82 % 1013,6 hPa 0,0 l/m 0 min 0 min 0,000 mm 0,0 UV-I 79 W/m 18,0 km/h (3 Bft)
31.12.2012 10:34 15,2 C 9,2 C 7,9 C 82 % 1013,7 hPa 0,0 l/m 0 min 0 min 0,000 mm 0,0 UV-I 77 W/m 23,2 km/h (4 Bft)
31.12.2012 10:36 15,2 C 9,2 C 7,9 C 82 % 1013,7 hPa 0,0 l/m 0 min 0 min 0,000 mm 0,0 UV-I 76 W/m 20,6 km/h (4 Bft)
31.12.2012 10:38 15,2 C 9,2 C 7,9 C 82 % 1013,7 hPa 0,0 l/m 0 min 0 min 0,000 mm 0,0 UV-I 72 W/m 10,3 km/h (2 Bft)
31.12.2012 10:40 15,2 C 9,2 C 7,9 C 82 % 1013,6 hPa 0,0 l/m 0 min 0 min 0,000 mm 0,0 UV-I 67 W/m 20,6 km/h (4 Bft)
31.12.2012 10:42 15,2 C 9,2 C 7,9 C 82 % 1013,9 hPa 0,0 l/m 0 min 0 min 0,000 mm 0,0 UV-I 70 W/m 25,7 km/h (4 Bft)
31.12.2012 10:44 15,2 C 9,2 C 7,9 C 82 % 1013,8 hPa 0,0 l/m 0 min 0 min 0,000 mm 0,0 UV-I 70 W/m 18,0 km/h (3 Bft)
31.12.2012 10:46 15,3 C 9,2 C 7,9 C 82 % 1013,8 hPa 0,0 l/m 0 min 0 min 0,000 mm 0,0 UV-I 69 W/m 15,4 km/h (3 Bft)
31.12.2012 10:48 15,3 C 9,2 C 7,9 C 82 % 1013,7 hPa 0,0 l/m 0 min 0 min 0,000 mm 0,0 UV-I 67 W/m 23,2 km/h (4 Bft)
31.12.2012 10:50 15,3 C 9,2 C 7,9 C 82 % 1013,8 hPa 0,0 l/m 0 min 0 min 0,000 mm 0,0 UV-I 63 W/m 33,5 km/h (5 Bft)
31.12.2012 10:52 15,2 C 9,2 C 8,4 C 82 % 1013,9 hPa 0,0 l/m 0 min 0 min 0,000 mm 0,0 UV-I 65 W/m 25,7 km/h (4 Bft)
31.12.2012 10:54 15,2 C 9,3 C 8,4 C 82 % 1013,7 hPa 0,0 l/m 0 min 0 min 0,000 mm 0,0 UV-I 67 W/m 28,3 km/h (4 Bft)
31.12.2012 10:56 15,2 C 9,3 C 8,4 C 82 % 1013,6 hPa 0,0 l/m 0 min 0 min 0,000 mm 0,0 UV-I 86 W/m 12,9 km/h (3 Bft)
31.12.2012 10:58 15,2 C 9,3 C 8,4 C 82 % 1013,7 hPa 0,0 l/m 0 min 0 min 0,000 mm 0,0 UV-I 86 W/m 36,0 km/h (5 Bft)
31.12.2012 11:00 15,2 C 9,3 C 8,4 C 82 % 1013,6 hPa 0,0 l/m 0 min 0 min 0,025 mm 0,0 UV-I 88 W/m 23,2 km/h (4 Bft)
31.12.2012 11:02 15,2 C 9,3 C 8,4 C 82 % 1013,5 hPa 0,0 l/m 0 min 0 min 0,000 mm 0,0 UV-I 79 W/m 10,3 km/h (2 Bft)
31.12.2012 11:04 15,3 C 9,3 C 8,4 C 82 % 1013,6 hPa 0,0 l/m 0 min 0 min 0,000 mm 0,0 UV-I 76 W/m 18,0 km/h (3 Bft)
31.12.2012 11:06 15,3 C 9,3 C 8,4 C 82 % 1013,6 hPa 0,0 l/m 0 min 0 min 0,000 mm 0,0 UV-I 74 W/m 33,5 km/h (5 Bft)
31.12.2012 11:08 15,2 C 9,3 C 8,4 C 82 % 1013,5 hPa 0,0 l/m 0 min 0 min 0,000 mm 0,0 UV-I 76 W/m 20,6 km/h (4 Bft)
31.12.2012 11:10 15,2 C 9,3 C 8,4 C 82 % 1013,5 hPa 0,0 l/m 0 min 0 min 0,000 mm 0,0 UV-I 70 W/m 12,9 km/h (3 Bft)
31.12.2012 11:12 15,2 C 9,3 C 8,4 C 82 % 1013,6 hPa 0,0 l/m 0 min 0 min 0,000 mm 0,0 UV-I 70 W/m 25,7 km/h (4 Bft)
31.12.2012 11:14 15,2 C 9,3 C 8,4 C 82 % 1013,4 hPa 0,0 l/m 0 min 0 min 0,000 mm 0,0 UV-I 70 W/m 25,7 km/h (4 Bft)
31.12.2012 11:16 15,2 C 9,3 C 8,4 C 82 % 1013,4 hPa 0,0 l/m 0 min 0 min 0,000 mm 0,0 UV-I 67 W/m 12,9 km/h (3 Bft)
31.12.2012 11:18 15,2 C 9,3 C 8,4 C 82 % 1013,4 hPa 0,0 l/m 0 min 0 min 0,000 mm 0,0 UV-I 60 W/m 28,3 km/h (4 Bft)
31.12.2012 11:20 15,2 C 9,4 C 8,4 C 82 % 1013,4 hPa 0,0 l/m 0 min 0 min 0,000 mm 0,0 UV-I 62 W/m 23,2 km/h (4 Bft)
31.12.2012 11:22 15,3 C 9,4 C 8,4 C 82 % 1013,7 hPa 0,0 l/m 0 min 0 min 0,000 mm 0,0 UV-I 72 W/m 28,3 km/h (4 Bft)
31.12.2012 11:24 15,3 C 9,4 C 8,4 C 82 % 1013,3 hPa 0,0 l/m 0 min 0 min 0,000 mm 0,0 UV-I 69 W/m 15,4 km/h (3 Bft)
31.12.2012 11:26 15,3 C 9,4 C 8,4 C 82 % 1013,4 hPa 0,0 l/m 0 min 0 min 0,000 mm 0,0 UV-I 67 W/m 18,0 km/h (3 Bft)
31.12.2012 11:28 15,2 C 9,4 C 8,4 C 82 % 1013,2 hPa 0,0 l/m 0 min 0 min 0,000 mm 0,0 UV-I 65 W/m 23,2 km/h (4 Bft)
31.12.2012 11:30 15,2 C 9,5 C 8,4 C 82 % 1013,2 hPa 0,0 l/m 0 min 0 min 0,000 mm 0,0 UV-I 60 W/m 25,7 km/h (4 Bft)
31.12.2012 11:32 15,2 C 9,5 C 8,4 C 82 % 1013,2 hPa 0,0 l/m 0 min 0 min 0,000 mm 0,0 UV-I 58 W/m 23,2 km/h (4 Bft)
31.12.2012 11:34 15,2 C 9,5 C 8,4 C 82 % 1013,1 hPa 0,0 l/m 0 min 0 min 0,000 mm 0,0 UV-I 70 W/m 20,6 km/h (4 Bft)
31.12.2012 11:36 15,2 C 9,5 C 8,4 C 81 % 1013,0 hPa 0,0 l/m 0 min 0 min 0,000 mm 0,0 UV-I 72 W/m 7,7 km/h (2 Bft)
31.12.2012 11:38 15,3 C 9,6 C 8,4 C 82 % 1013,1 hPa 0,0 l/m 0 min 0 min 0,000 mm 0,0 UV-I 77 W/m 36,0 km/h (5 Bft)
31.12.2012 11:40 15,3 C 9,6 C 8,4 C 82 % 1013,1 hPa 0,0 l/m 0 min 0 min 0,000 mm 0,0 UV-I 65 W/m 18,0 km/h (3 Bft)
31.12.2012 11:42 15,3 C 9,6 C 8,4 C 82 % 1013,0 hPa 0,0 l/m 0 min 0 min 0,000 mm 0,0 UV-I 60 W/m 10,3 km/h (2 Bft)
31.12.2012 11:44 15,3 C 9,6 C 8,4 C 82 % 1013,1 hPa 0,0 l/m 0 min 0 min 0,000 mm 0,0 UV-I 53 W/m 18,0 km/h (3 Bft)
31.12.2012 11:46 15,3 C 9,6 C 8,4 C 82 % 1013,1 hPa 0,0 l/m 0 min 0 min 0,000 mm 0,0 UV-I 54 W/m 10,3 km/h (2 Bft)
31.12.2012 11:48 15,3 C 9,6 C 8,4 C 82 % 1013,2 hPa 0,0 l/m 0 min 0 min 0,000 mm 0,0 UV-I 58 W/m 15,4 km/h (3 Bft)
31.12.2012 11:50 15,3 C 9,6 C 8,4 C 82 % 1013,1 hPa 0,0 l/m 0 min 0 min 0,000 mm 0,0 UV-I 67 W/m 36,0 km/h (5 Bft)
31.12.2012 11:52 15,3 C 9,6 C 8,4 C 82 % 1013,0 hPa 0,0 l/m 0 min 0 min 0,000 mm 0,0 UV-I 63 W/m 23,2 km/h (4 Bft)
31.12.2012 11:54 15,3 C 9,6 C 8,4 C 82 % 1013,0 hPa 0,0 l/m 0 min 0 min 0,000 mm 0,0 UV-I 72 W/m 25,7 km/h (4 Bft)
31.12.2012 11:56 15,4 C 9,6 C 8,4 C 82 % 1013,1 hPa 0,0 l/m 0 min 0 min 0,000 mm 0,0 UV-I 63 W/m 23,2 km/h (4 Bft)
31.12.2012 11:58 15,3 C 9,6 C 8,4 C 82 % 1013,1 hPa 0,0 l/m 0 min 0 min 0,000 mm 0,0 UV-I 54 W/m 18,0 km/h (3 Bft)
31.12.2012 12:00 15,3 C 9,6 C 8,4 C 82 % 1013,2 hPa 0,0 l/m 0 min 0 min 0,051 mm 0,0 UV-I 53 W/m 30,9 km/h (5 Bft)
31.12.2012 12:02 15,3 C 9,6 C 8,4 C 82 % 1012,9 hPa 0,0 l/m 0 min 0 min 0,000 mm 0,0 UV-I 47 W/m 23,2 km/h (4 Bft)
31.12.2012 12:04 15,3 C 9,6 C 8,4 C 82 % 1013,0 hPa 0,0 l/m 0 min 0 min 0,000 mm 0,0 UV-I 47 W/m 28,3 km/h (4 Bft)
31.12.2012 12:06 15,3 C 9,6 C 8,4 C 82 % 1013,0 hPa 0,0 l/m 0 min 0 min 0,000 mm 0,0 UV-I 49 W/m 23,2 km/h (4 Bft)
31.12.2012 12:08 15,3 C 9,7 C 8,4 C 82 % 1012,9 hPa 0,0 l/m 0 min 0 min 0,000 mm 0,0 UV-I 47 W/m 18,0 km/h (3 Bft)
31.12.2012 12:10 15,3 C 9,6 C 8,4 C 82 % 1013,0 hPa 0,0 l/m 0 min 0 min 0,000 mm 0,0 UV-I 39 W/m 20,6 km/h (4 Bft)
31.12.2012 12:12 15,5 C 9,7 C 8,4 C 82 % 1013,1 hPa 0,0 l/m 0 min 0 min 0,000 mm 0,0 UV-I 49 W/m 18,0 km/h (3 Bft)
31.12.2012 12:14 15,4 C 9,6 C 8,4 C 82 % 1012,9 hPa 0,0 l/m 0 min 0 min 0,000 mm 0,0 UV-I 54 W/m 18,0 km/h (3 Bft)
31.12.2012 12:16 15,3 C 9,7 C 8,4 C 82 % 1012,8 hPa 0,0 l/m 0 min 0 min 0,000 mm 0,0 UV-I 58 W/m 15,4 km/h (3 Bft)
31.12.2012 12:18 15,3 C 9,7 C 8,4 C 82 % 1012,8 hPa 0,0 l/m 0 min 0 min 0,000 mm 0,0 UV-I 58 W/m 10,3 km/h (2 Bft)
31.12.2012 12:20 15,3 C 9,7 C 8,4 C 82 % 1012,8 hPa 0,0 l/m 0 min 0 min 0,000 mm 0,0 UV-I 62 W/m 18,0 km/h (3 Bft)
31.12.2012 12:22 15,3 C 9,7 C 8,4 C 82 % 1012,7 hPa 0,0 l/m 0 min 0 min 0,000 mm 0,0 UV-I 56 W/m 15,4 km/h (3 Bft)
31.12.2012 12:24 15,3 C 9,7 C 8,4 C 82 % 1012,7 hPa 0,0 l/m 0 min 0 min 0,000 mm 0,0 UV-I 65 W/m 41,2 km/h (6 Bft)
31.12.2012 12:26 15,3 C 9,7 C 8,4 C 82 % 1012,7 hPa 0,0 l/m 0 min 0 min 0,000 mm 0,0 UV-I 70 W/m 20,6 km/h (4 Bft)
31.12.2012 12:28 15,4 C 9,7 C 8,4 C 82 % 1012,4 hPa 0,0 l/m 0 min 0 min 0,000 mm 0,0 UV-I 79 W/m 18,0 km/h (3 Bft)
31.12.2012 12:30 15,4 C 9,7 C 8,4 C 82 % 1012,5 hPa 0,0 l/m 0 min 0 min 0,000 mm 0,0 UV-I 69 W/m 33,5 km/h (5 Bft)
31.12.2012 12:32 15,3 C 9,7 C 8,4 C 82 % 1012,3 hPa 0,0 l/m 0 min 0 min 0,000 mm 0,0 UV-I 77 W/m 20,6 km/h (4 Bft)
31.12.2012 12:34 15,3 C 9,8 C 9,0 C 82 % 1012,3 hPa 0,0 l/m 0 min 0 min 0,000 mm 0,0 UV-I 72 W/m 23,2 km/h (4 Bft)
31.12.2012 12:36 15,3 C 9,8 C 9,0 C 82 % 1012,3 hPa 0,0 l/m 0 min 0 min 0,000 mm 0,0 UV-I 77 W/m 33,5 km/h (5 Bft)
31.12.2012 12:38 15,3 C 9,8 C 8,4 C 82 % 1012,2 hPa 0,0 l/m 0 min 0 min 0,000 mm 0,0 UV-I 76 W/m 23,2 km/h (4 Bft)
31.12.2012 12:40 15,3 C 9,8 C 8,4 C 82 % 1012,2 hPa 0,0 l/m 0 min 0 min 0,000 mm 0,0 UV-I 74 W/m 12,9 km/h (3 Bft)
31.12.2012 12:42 15,3 C 9,8 C 8,4 C 82 % 1012,1 hPa 0,0 l/m 0 min 0 min 0,000 mm 0,0 UV-I 76 W/m 15,4 km/h (3 Bft)
31.12.2012 12:44 15,3 C 9,8 C 9,0 C 82 % 1012,2 hPa 0,0 l/m 0 min 0 min 0,000 mm 0,0 UV-I 65 W/m 25,7 km/h (4 Bft)
31.12.2012 12:46 15,4 C 9,8 C 9,0 C 82 % 1012,2 hPa 0,0 l/m 0 min 0 min 0,000 mm 0,0 UV-I 67 W/m 25,7 km/h (4 Bft)
31.12.2012 12:48 15,3 C 9,8 C 8,4 C 82 % 1012,2 hPa 0,0 l/m 0 min 0 min 0,000 mm 0,0 UV-I 56 W/m 28,3 km/h (4 Bft)
31.12.2012 12:50 15,3 C 9,8 C 9,0 C 82 % 1012,2 hPa 0,0 l/m 0 min 0 min 0,000 mm 0,0 UV-I 58 W/m 18,0 km/h (3 Bft)
31.12.2012 12:52 15,3 C 9,8 C 8,4 C 82 % 1012,1 hPa 0,0 l/m 0 min 0 min 0,000 mm 0,0 UV-I 69 W/m 23,2 km/h (4 Bft)
31.12.2012 12:54 15,3 C 9,9 C 9,0 C 82 % 1012,1 hPa 0,0 l/m 0 min 0 min 0,000 mm 0,0 UV-I 69 W/m 43,8 km/h (6 Bft)
31.12.2012 12:56 15,3 C 9,9 C 9,0 C 81 % 1012,0 hPa 0,0 l/m 0 min 0 min 0,000 mm 0,0 UV-I 72 W/m 38,6 km/h (5 Bft)
31.12.2012 12:58 15,3 C 9,9 C 9,0 C 81 % 1012,0 hPa 0,0 l/m 0 min 0 min 0,000 mm 0,0 UV-I 79 W/m 15,4 km/h (3 Bft)
31.12.2012 13:00 15,3 C 9,9 C 9,0 C 82 % 1012,0 hPa 0,0 l/m 0 min 0 min 0,051 mm 0,0 UV-I 79 W/m 25,7 km/h (4 Bft)
31.12.2012 13:02 15,3 C 9,9 C 9,0 C 81 % 1011,8 hPa 0,0 l/m 0 min 0 min 0,000 mm 0,0 UV-I 86 W/m 20,6 km/h (4 Bft)
31.12.2012 13:06 15,3 C 9,9 C 9,0 C 82 % 1011,8 hPa 0,0 l/m 0 min 0 min 0,000 mm 0,0 UV-I 81 W/m 15,4 km/h (3 Bft)
31.12.2012 13:08 15,3 C 9,9 C 9,0 C 82 % 1011,8 hPa 0,0 l/m 0 min 0 min 0,000 mm 0,0 UV-I 86 W/m 15,4 km/h (3 Bft)
31.12.2012 13:10 15,3 C 10,0 C 9,0 C 82 % 1011,7 hPa 0,0 l/m 0 min 0 min 0,000 mm 0,0 UV-I 91 W/m 18,0 km/h (3 Bft)
31.12.2012 13:12 15,3 C 10,0 C 9,0 C 82 % 1011,6 hPa 0,0 l/m 0 min 0 min 0,000 mm 0,0 UV-I 91 W/m 23,2 km/h (4 Bft)
31.12.2012 13:14 15,3 C 10,0 C 9,0 C 82 % 1011,7 hPa 0,0 l/m 0 min 0 min 0,000 mm 0,0 UV-I 90 W/m 12,9 km/h (3 Bft)
31.12.2012 13:16 15,3 C 9,9 C 9,0 C 82 % 1011,7 hPa 0,0 l/m 0 min 0 min 0,000 mm 0,0 UV-I 88 W/m 28,3 km/h (4 Bft)
31.12.2012 13:18 15,3 C 10,0 C 9,0 C 82 % 1011,6 hPa 0,0 l/m 0 min 0 min 0,000 mm 0,0 UV-I 88 W/m 23,2 km/h (4 Bft)
31.12.2012 13:20 15,4 C 10,0 C 9,0 C 82 % 1011,7 hPa 0,0 l/m 0 min 0 min 0,000 mm 0,0 UV-I 86 W/m 15,4 km/h (3 Bft)
31.12.2012 13:22 15,4 C 10,0 C 9,0 C 82 % 1011,7 hPa 0,0 l/m 0 min 0 min 0,000 mm 0,0 UV-I 83 W/m 10,3 km/h (2 Bft)
31.12.2012 13:24 15,3 C 10,0 C 9,0 C 82 % 1011,6 hPa 0,0 l/m 0 min 0 min 0,000 mm 0,0 UV-I 86 W/m 12,9 km/h (3 Bft)
31.12.2012 13:26 15,3 C 10,0 C 9,0 C 82 % 1011,5 hPa 0,0 l/m 0 min 0 min 0,000 mm 0,0 UV-I 81 W/m 23,2 km/h (4 Bft)
31.12.2012 13:28 15,3 C 10,0 C 9,0 C 82 % 1011,6 hPa 0,0 l/m 0 min 0 min 0,000 mm 0,0 UV-I 84 W/m 23,2 km/h (4 Bft)
31.12.2012 13:30 15,3 C 10,0 C 9,0 C 82 % 1011,5 hPa 0,0 l/m 0 min 0 min 0,000 mm 0,0 UV-I 84 W/m 28,3 km/h (4 Bft)
31.12.2012 13:32 15,3 C 10,0 C 9,0 C 82 % 1011,4 hPa 0,0 l/m 0 min 0 min 0,000 mm 0,0 UV-I 81 W/m 20,6 km/h (4 Bft)
31.12.2012 13:34 15,3 C 10,1 C 9,0 C 82 % 1011,2 hPa 0,0 l/m 0 min 0 min 0,000 mm 0,0 UV-I 79 W/m 18,0 km/h (3 Bft)
31.12.2012 13:36 15,4 C 10,1 C 9,0 C 82 % 1011,4 hPa 0,0 l/m 0 min 0 min 0,000 mm 0,0 UV-I 81 W/m 12,9 km/h (3 Bft)
31.12.2012 13:38 15,4 C 10,1 C 9,0 C 82 % 1011,2 hPa 0,0 l/m 0 min 0 min 0,000 mm 0,0 UV-I 81 W/m 15,4 km/h (3 Bft)
31.12.2012 13:40 15,4 C 10,1 C 9,0 C 82 % 1011,3 hPa 0,0 l/m 0 min 0 min 0,000 mm 0,0 UV-I 84 W/m 18,0 km/h (3 Bft)
31.12.2012 13:42 15,4 C 10,1 C 9,0 C 82 % 1011,3 hPa 0,0 l/m 0 min 0 min 0,000 mm 0,0 UV-I 76 W/m 20,6 km/h (4 Bft)
31.12.2012 13:44 15,4 C 10,1 C 9,0 C 81 % 1011,4 hPa 0,0 l/m 0 min 0 min 0,000 mm 0,0 UV-I 77 W/m 28,3 km/h (4 Bft)
31.12.2012 13:46 15,4 C 10,1 C 9,0 C 81 % 1011,3 hPa 0,0 l/m 0 min 0 min 0,000 mm 0,0 UV-I 72 W/m 23,2 km/h (4 Bft)
31.12.2012 13:48 15,4 C 10,1 C 9,0 C 81 % 1011,2 hPa 0,0 l/m 0 min 0 min 0,000 mm 0,0 UV-I 77 W/m 18,0 km/h (3 Bft)
31.12.2012 13:50 15,4 C 10,1 C 9,0 C 81 % 1011,2 hPa 0,0 l/m 0 min 0 min 0,000 mm 0,0 UV-I 81 W/m 18,0 km/h (3 Bft)
31.12.2012 13:52 15,4 C 10,1 C 9,0 C 81 % 1011,2 hPa 0,0 l/m 0 min 0 min 0,000 mm 0,0 UV-I 81 W/m 20,6 km/h (4 Bft)
31.12.2012 13:54 15,6 C 10,2 C 9,0 C 81 % 1011,1 hPa 0,0 l/m 0 min 0 min 0,000 mm 0,0 UV-I 77 W/m 23,2 km/h (4 Bft)
31.12.2012 13:56 15,5 C 10,2 C 9,0 C 81 % 1011,2 hPa 0,0 l/m 0 min 0 min 0,000 mm 0,0 UV-I 63 W/m 7,7 km/h (2 Bft)
31.12.2012 13:58 15,4 C 10,2 C 9,0 C 81 % 1011,2 hPa 0,0 l/m 0 min 0 min 0,000 mm 0,0 UV-I 63 W/m 20,6 km/h (4 Bft)
31.12.2012 14:00 15,4 C 10,2 C 9,0 C 81 % 1011,2 hPa 0,0 l/m 0 min 0 min 0,050 mm 0,0 UV-I 63 W/m 30,9 km/h (5 Bft)
31.12.2012 14:02 15,4 C 10,2 C 9,0 C 81 % 1011,3 hPa 0,0 l/m 0 min 0 min 0,000 mm 0,0 UV-I 54 W/m 25,7 km/h (4 Bft)
31.12.2012 14:06 15,4 C 10,2 C 9,0 C 81 % 1011,1 hPa 0,0 l/m 0 min 0 min 0,000 mm 0,0 UV-I 56 W/m 41,2 km/h (6 Bft)
31.12.2012 14:08 15,4 C 10,2 C 9,0 C 81 % 1011,1 hPa 0,0 l/m 0 min 0 min 0,000 mm 0,0 UV-I 49 W/m 20,6 km/h (4 Bft)
31.12.2012 14:10 15,4 C 10,2 C 9,0 C 81 % 1011,1 hPa 0,0 l/m 0 min 0 min 0,000 mm 0,0 UV-I 49 W/m 20,6 km/h (4 Bft)
31.12.2012 14:12 15,5 C 10,2 C 9,0 C 81 % 1011,1 hPa 0,0 l/m 0 min 0 min 0,000 mm 0,0 UV-I 42 W/m 12,9 km/h (3 Bft)
31.12.2012 14:14 15,4 C 10,2 C 9,0 C 81 % 1010,8 hPa 0,0 l/m 0 min 0 min 0,000 mm 0,0 UV-I 39 W/m 15,4 km/h (3 Bft)
31.12.2012 14:16 15,4 C 10,2 C 9,0 C 81 % 1011,0 hPa 0,0 l/m 0 min 0 min 0,000 mm 0,0 UV-I 42 W/m 30,9 km/h (5 Bft)
31.12.2012 14:18 15,4 C 10,2 C 9,0 C 81 % 1010,9 hPa 0,0 l/m 0 min 0 min 0,000 mm 0,0 UV-I 42 W/m 12,9 km/h (3 Bft)
31.12.2012 14:20 15,4 C 10,2 C 9,0 C 81 % 1010,9 hPa 0,0 l/m 0 min 0 min 0,000 mm 0,0 UV-I 40 W/m 25,7 km/h (4 Bft)
31.12.2012 14:22 15,4 C 10,2 C 9,0 C 81 % 1011,0 hPa 0,0 l/m 0 min 0 min 0,000 mm 0,0 UV-I 37 W/m 20,6 km/h (4 Bft)
31.12.2012 14:24 15,4 C 10,2 C 9,0 C 80 % 1010,9 hPa 0,0 l/m 0 min 0 min 0,000 mm 0,0 UV-I 35 W/m 28,3 km/h (4 Bft)
31.12.2012 14:26 15,3 C 10,2 C 9,0 C 81 % 1010,8 hPa 0,0 l/m 0 min 0 min 0,000 mm 0,0 UV-I 40 W/m 15,4 km/h (3 Bft)
31.12.2012 14:28 15,5 C 10,2 C 9,0 C 81 % 1010,6 hPa 0,0 l/m 0 min 0 min 0,000 mm 0,0 UV-I 40 W/m 28,3 km/h (4 Bft)
31.12.2012 14:30 15,4 C 10,2 C 9,0 C 81 % 1010,7 hPa 0,0 l/m 0 min 0 min 0,000 mm 0,0 UV-I 37 W/m 7,7 km/h (2 Bft)
31.12.2012 14:32 15,4 C 10,2 C 9,0 C 81 % 1010,7 hPa 0,0 l/m 0 min 0 min 0,000 mm 0,0 UV-I 33 W/m 28,3 km/h (4 Bft)
31.12.2012 14:34 15,4 C 10,2 C 9,0 C 81 % 1010,6 hPa 0,0 l/m 0 min 0 min 0,000 mm 0,0 UV-I 30 W/m 18,0 km/h (3 Bft)
31.12.2012 14:36 15,4 C 10,2 C 9,0 C 81 % 1010,5 hPa 0,0 l/m 0 min 0 min 0,000 mm 0,0 UV-I 30 W/m 10,3 km/h (2 Bft)
31.12.2012 14:38 15,4 C 10,2 C 9,0 C 81 % 1010,5 hPa 0,0 l/m 0 min 0 min 0,000 mm 0,0 UV-I 28 W/m 20,6 km/h (4 Bft)
31.12.2012 14:40 15,4 C 10,2 C 9,0 C 80 % 1010,7 hPa 0,0 l/m 0 min 0 min 0,000 mm 0,0 UV-I 28 W/m 28,3 km/h (4 Bft)
31.12.2012 14:42 15,4 C 10,2 C 9,0 C 80 % 1010,4 hPa 0,0 l/m 0 min 0 min 0,000 mm 0,0 UV-I 32 W/m 15,4 km/h (3 Bft)
31.12.2012 14:44 15,4 C 10,2 C 9,0 C 80 % 1010,4 hPa 0,0 l/m 0 min 0 min 0,000 mm 0,0 UV-I 32 W/m 33,5 km/h (5 Bft)
31.12.2012 14:46 15,5 C 10,2 C 9,0 C 80 % 1010,3 hPa 0,0 l/m 0 min 0 min 0,000 mm 0,0 UV-I 33 W/m 20,6 km/h (4 Bft)
31.12.2012 14:48 15,4 C 10,2 C 9,0 C 80 % 1010,3 hPa 0,0 l/m 0 min 0 min 0,000 mm 0,0 UV-I 32 W/m 25,7 km/h (4 Bft)
31.12.2012 14:50 15,4 C 10,2 C 9,0 C 80 % 1010,3 hPa 0,0 l/m 0 min 0 min 0,000 mm 0,0 UV-I 30 W/m 12,9 km/h (3 Bft)
31.12.2012 14:52 15,4 C 10,2 C 9,0 C 80 % 1010,3 hPa 0,0 l/m 0 min 0 min 0,000 mm 0,0 UV-I 33 W/m 15,4 km/h (3 Bft)
31.12.2012 14:54 15,3 C 10,2 C 9,0 C 80 % 1010,3 hPa 0,0 l/m 0 min 0 min 0,000 mm 0,0 UV-I 33 W/m 33,5 km/h (5 Bft)
31.12.2012 14:56 15,3 C 10,2 C 9,0 C 80 % 1010,1 hPa 0,0 l/m 0 min 0 min 0,000 mm 0,0 UV-I 37 W/m 20,6 km/h (4 Bft)
31.12.2012 14:58 15,3 C 10,2 C 9,0 C 80 % 1010,1 hPa 0,0 l/m 0 min 0 min 0,000 mm 0,0 UV-I 42 W/m 18,0 km/h (3 Bft)
31.12.2012 15:00 15,3 C 10,2 C 9,0 C 80 % 1010,0 hPa 0,0 l/m 0 min 0 min 0,026 mm 0,0 UV-I 44 W/m 15,4 km/h (3 Bft)
31.12.2012 15:02 15,5 C 10,2 C 9,0 C 80 % 1010,2 hPa 0,0 l/m 0 min 0 min 0,000 mm 0,0 UV-I 39 W/m 20,6 km/h (4 Bft)
31.12.2012 15:04 15,4 C 10,2 C 9,0 C 80 % 1010,0 hPa 0,0 l/m 0 min 0 min 0,000 mm 0,0 UV-I 35 W/m 25,7 km/h (4 Bft)
31.12.2012 15:06 15,4 C 10,3 C 9,0 C 80 % 1010,1 hPa 0,0 l/m 0 min 0 min 0,000 mm 0,0 UV-I 40 W/m 15,4 km/h (3 Bft)
31.12.2012 15:08 15,4 C 10,3 C 9,0 C 79 % 1010,0 hPa 0,0 l/m 0 min 0 min 0,000 mm 0,0 UV-I 44 W/m 30,9 km/h (5 Bft)
31.12.2012 15:10 15,4 C 10,3 C 9,0 C 79 % 1010,0 hPa 0,0 l/m 0 min 0 min 0,000 mm 0,0 UV-I 56 W/m 20,6 km/h (4 Bft)
31.12.2012 15:12 15,4 C 10,3 C 9,0 C 79 % 1010,0 hPa 0,0 l/m 0 min 0 min 0,000 mm 0,0 UV-I 58 W/m 12,9 km/h (3 Bft)
31.12.2012 15:14 15,4 C 10,3 C 9,0 C 79 % 1010,0 hPa 0,0 l/m 0 min 0 min 0,000 mm 0,0 UV-I 47 W/m 25,7 km/h (4 Bft)
31.12.2012 15:16 15,4 C 10,3 C 9,0 C 79 % 1010,2 hPa 0,0 l/m 0 min 0 min 0,000 mm 0,0 UV-I 37 W/m 18,0 km/h (3 Bft)
31.12.2012 15:18 15,5 C 10,3 C 9,0 C 79 % 1010,0 hPa 0,0 l/m 0 min 0 min 0,000 mm 0,0 UV-I 32 W/m 23,2 km/h (4 Bft)
31.12.2012 15:20 15,5 C 10,3 C 9,0 C 79 % 1009,9 hPa 0,0 l/m 0 min 0 min 0,000 mm 0,0 UV-I 35 W/m 15,4 km/h (3 Bft)
31.12.2012 15:22 15,4 C 10,3 C 9,0 C 79 % 1009,9 hPa 0,0 l/m 0 min 0 min 0,000 mm 0,0 UV-I 46 W/m 10,3 km/h (2 Bft)
31.12.2012 15:24 15,4 C 10,3 C 9,0 C 79 % 1009,9 hPa 0,0 l/m 0 min 0 min 0,000 mm 0,0 UV-I 44 W/m 23,2 km/h (4 Bft)
31.12.2012 15:26 15,4 C 10,3 C 9,0 C 79 % 1009,9 hPa 0,0 l/m 0 min 0 min 0,000 mm 0,0 UV-I 46 W/m 20,6 km/h (4 Bft)
31.12.2012 15:28 15,4 C 10,3 C 9,0 C 79 % 1009,8 hPa 0,0 l/m 0 min 0 min 0,000 mm 0,0 UV-I 40 W/m 15,4 km/h (3 Bft)
31.12.2012 15:30 15,4 C 10,3 C 9,0 C 79 % 1009,9 hPa 0,0 l/m 0 min 0 min 0,000 mm 0,0 UV-I 40 W/m 15,4 km/h (3 Bft)
31.12.2012 15:32 15,4 C 10,3 C 9,0 C 79 % 1009,9 hPa 0,0 l/m 0 min 0 min 0,000 mm 0,0 UV-I 33 W/m 20,6 km/h (4 Bft)
31.12.2012 15:34 15,4 C 10,3 C 9,0 C 79 % 1009,8 hPa 0,0 l/m 0 min 0 min 0,000 mm 0,0 UV-I 30 W/m 25,7 km/h (4 Bft)
31.12.2012 15:36 15,5 C 10,3 C 9,0 C 79 % 1009,8 hPa 0,0 l/m 0 min 0 min 0,000 mm 0,0 UV-I 26 W/m 12,9 km/h (3 Bft)
31.12.2012 15:38 15,5 C 10,3 C 9,0 C 79 % 1009,7 hPa 0,0 l/m 0 min 0 min 0,000 mm 0,0 UV-I 25 W/m 20,6 km/h (4 Bft)
31.12.2012 15:40 15,5 C 10,3 C 9,0 C 79 % 1009,7 hPa 0,0 l/m 0 min 0 min 0,000 mm 0,0 UV-I 23 W/m 10,3 km/h (2 Bft)
31.12.2012 15:42 15,4 C 10,3 C 9,0 C 79 % 1009,7 hPa 0,0 l/m 0 min 0 min 0,000 mm 0,0 UV-I 23 W/m 18,0 km/h (3 Bft)
31.12.2012 15:44 15,4 C 10,3 C 9,0 C 79 % 1009,8 hPa 0,0 l/m 0 min 0 min 0,000 mm 0,0 UV-I 19 W/m 28,3 km/h (4 Bft)
31.12.2012 15:46 15,4 C 10,3 C 9,0 C 79 % 1009,8 hPa 0,0 l/m 0 min 0 min 0,000 mm 0,0 UV-I 18 W/m 28,3 km/h (4 Bft)
31.12.2012 15:48 15,4 C 10,3 C 9,0 C 79 % 1009,6 hPa 0,0 l/m 0 min 0 min 0,000 mm 0,0 UV-I 16 W/m 25,7 km/h (4 Bft)
31.12.2012 15:50 15,4 C 10,3 C 9,0 C 79 % 1009,7 hPa 0,0 l/m 0 min 0 min 0,000 mm 0,0 UV-I 12 W/m 18,0 km/h (3 Bft)
31.12.2012 15:52 15,5 C 10,3 C 9,0 C 79 % 1009,6 hPa 0,0 l/m 0 min 0 min 0,000 mm 0,0 UV-I 11 W/m 15,4 km/h (3 Bft)
31.12.2012 15:54 15,5 C 10,3 C 9,0 C 79 % 1009,7 hPa 0,0 l/m 0 min 0 min 0,000 mm 0,0 UV-I 12 W/m 18,0 km/h (3 Bft)
31.12.2012 15:56 15,5 C 10,3 C 9,0 C 79 % 1009,7 hPa 0,0 l/m 0 min 0 min 0,000 mm 0,0 UV-I 12 W/m 12,9 km/h (3 Bft)
31.12.2012 15:58 15,5 C 10,3 C 9,0 C 79 % 1009,5 hPa 0,0 l/m 0 min 0 min 0,000 mm 0,0 UV-I 11 W/m 20,6 km/h (4 Bft)
31.12.2012 16:00 15,5 C 10,3 C 9,0 C 79 % 1009,6 hPa 0,0 l/m 0 min 0 min 0,025 mm 0,0 UV-I 9 W/m 18,0 km/h (3 Bft)
31.12.2012 16:02 15,5 C 10,3 C 9,0 C 79 % 1009,6 hPa 0,0 l/m 0 min 0 min 0,000 mm 0,0 UV-I 9 W/m 20,6 km/h (4 Bft)
31.12.2012 16:04 15,5 C 10,3 C 8,4 C 79 % 1009,6 hPa 0,0 l/m 0 min 0 min 0,000 mm 0,0 UV-I 7 W/m 15,4 km/h (3 Bft)
31.12.2012 16:06 15,5 C 10,3 C 8,4 C 78 % 1009,6 hPa 0,0 l/m 0 min 0 min 0,000 mm 0,0 UV-I 7 W/m 33,5 km/h (5 Bft)
31.12.2012 16:08 15,5 C 10,3 C 9,0 C 79 % 1009,5 hPa 0,0 l/m 0 min 0 min 0,000 mm 0,0 UV-I 7 W/m 20,6 km/h (4 Bft)
31.12.2012 16:10 15,6 C 10,3 C 9,0 C 79 % 1009,4 hPa 0,0 l/m 0 min 0 min 0,000 mm 0,0 UV-I 7 W/m 12,9 km/h (3 Bft)
31.12.2012 16:12 15,5 C 10,3 C 8,4 C 79 % 1009,3 hPa 0,0 l/m 0 min 0 min 0,000 mm 0,0 UV-I 9 W/m 20,6 km/h (4 Bft)
31.12.2012 16:14 15,5 C 10,3 C 9,0 C 79 % 1009,3 hPa 0,0 l/m 0 min 0 min 0,000 mm 0,0 UV-I 9 W/m 25,7 km/h (4 Bft)
31.12.2012 16:16 15,4 C 10,3 C 9,0 C 79 % 1009,3 hPa 0,0 l/m 0 min 0 min 0,000 mm 0,0 UV-I 7 W/m 18,0 km/h (3 Bft)
31.12.2012 16:18 15,4 C 10,3 C 9,0 C 79 % 1009,2 hPa 0,0 l/m 0 min 0 min 0,000 mm 0,0 UV-I 5 W/m 25,7 km/h (4 Bft)
31.12.2012 16:20 15,4 C 10,3 C 9,0 C 79 % 1009,1 hPa 0,0 l/m 0 min 0 min 0,000 mm 0,0 UV-I 5 W/m 18,0 km/h (3 Bft)
31.12.2012 16:22 15,4 C 10,3 C 9,0 C 79 % 1008,9 hPa 0,0 l/m 0 min 0 min 0,000 mm 0,0 UV-I 5 W/m 28,3 km/h (4 Bft)
31.12.2012 16:24 15,4 C 10,3 C 8,4 C 79 % 1008,9 hPa 0,0 l/m 0 min 0 min 0,000 mm 0,0 UV-I 0 W/m 10,3 km/h (2 Bft)
31.12.2012 16:26 15,5 C 10,3 C 8,4 C 79 % 1008,9 hPa 0,0 l/m 0 min 0 min 0,000 mm 0,0 UV-I 0 W/m 18,0 km/h (3 Bft)
31.12.2012 16:28 15,5 C 10,3 C 8,4 C 79 % 1008,9 hPa 0,0 l/m 0 min 0 min 0,000 mm 0,0 UV-I 0 W/m 7,7 km/h (2 Bft)
31.12.2012 16:30 15,5 C 10,3 C 8,4 C 79 % 1008,9 hPa 0,0 l/m 0 min 0 min 0,000 mm 0,0 UV-I 0 W/m 12,9 km/h (3 Bft)
31.12.2012 16:32 15,4 C 10,3 C 8,4 C 79 % 1008,8 hPa 0,0 l/m 0 min 0 min 0,000 mm 0,0 UV-I 0 W/m 33,5 km/h (5 Bft)
31.12.2012 16:34 15,4 C 10,3 C 8,4 C 79 % 1008,8 hPa 0,0 l/m 0 min 0 min 0,000 mm 0,0 UV-I 0 W/m 15,4 km/h (3 Bft)
31.12.2012 16:36 15,4 C 10,3 C 8,4 C 79 % 1008,9 hPa 0,0 l/m 0 min 0 min 0,000 mm 0,0 UV-I 0 W/m 18,0 km/h (3 Bft)
31.12.2012 16:38 15,4 C 10,2 C 8,4 C 79 % 1008,8 hPa 0,0 l/m 0 min 0 min 0,000 mm 0,0 UV-I 0 W/m 18,0 km/h (3 Bft)
31.12.2012 16:40 15,4 C 10,2 C 8,4 C 79 % 1008,8 hPa 0,0 l/m 0 min 0 min 0,000 mm 0,0 UV-I 0 W/m 20,6 km/h (4 Bft)
31.12.2012 16:42 15,4 C 10,2 C 8,4 C 79 % 1008,7 hPa 0,0 l/m 0 min 0 min 0,000 mm 0,0 UV-I 0 W/m 15,4 km/h (3 Bft)
31.12.2012 16:44 15,6 C 10,2 C 8,4 C 79 % 1008,5 hPa 0,0 l/m 0 min 0 min 0,000 mm 0,0 UV-I 0 W/m 30,9 km/h (5 Bft)
31.12.2012 16:46 15,5 C 10,2 C 8,4 C 79 % 1008,5 hPa 0,0 l/m 0 min 0 min 0,000 mm 0,0 UV-I 0 W/m 15,4 km/h (3 Bft)
31.12.2012 16:48 15,5 C 10,2 C 8,4 C 80 % 1008,5 hPa 0,0 l/m 0 min 0 min 0,000 mm 0,0 UV-I 0 W/m 20,6 km/h (4 Bft)
31.12.2012 16:50 15,5 C 10,2 C 8,4 C 80 % 1008,5 hPa 0,0 l/m 0 min 0 min 0,000 mm 0,0 UV-I 0 W/m 12,9 km/h (3 Bft)
31.12.2012 16:52 15,5 C 10,2 C 8,4 C 80 % 1008,4 hPa 0,0 l/m 0 min 0 min 0,000 mm 0,0 UV-I 0 W/m 28,3 km/h (4 Bft)
31.12.2012 16:54 15,5 C 10,1 C 8,4 C 80 % 1008,4 hPa 0,0 l/m 0 min 0 min 0,000 mm 0,0 UV-I 0 W/m 12,9 km/h (3 Bft)
31.12.2012 16:56 15,5 C 10,1 C 8,4 C 80 % 1008,4 hPa 0,0 l/m 0 min 0 min 0,000 mm 0,0 UV-I 0 W/m 18,0 km/h (3 Bft)
31.12.2012 16:58 15,5 C 10,1 C 8,4 C 80 % 1008,5 hPa 0,0 l/m 0 min 0 min 0,000 mm 0,0 UV-I 0 W/m 15,4 km/h (3 Bft)
31.12.2012 17:00 15,6 C 10,1 C 7,9 C 80 % 1008,4 hPa 0,0 l/m 0 min 0 min 0,026 mm 0,0 UV-I 0 W/m 23,2 km/h (4 Bft)
31.12.2012 17:02 15,6 C 10,1 C 7,9 C 80 % 1008,4 hPa 0,0 l/m 0 min 0 min 0,000 mm 0,0 UV-I 0 W/m 12,9 km/h (3 Bft)
31.12.2012 17:06 15,6 C 10,0 C 8,4 C 80 % 1008,2 hPa 0,0 l/m 0 min 0 min 0,000 mm 0,0 UV-I 0 W/m 15,4 km/h (3 Bft)
31.12.2012 17:08 15,5 C 9,9 C 8,4 C 80 % 1008,2 hPa 0,0 l/m 0 min 0 min 0,000 mm 0,0 UV-I 0 W/m 18,0 km/h (3 Bft)
31.12.2012 17:10 15,5 C 9,9 C 8,4 C 80 % 1008,2 hPa 0,0 l/m 0 min 0 min 0,000 mm 0,0 UV-I 0 W/m 15,4 km/h (3 Bft)
31.12.2012 17:12 15,5 C 9,9 C 8,4 C 80 % 1008,1 hPa 0,0 l/m 0 min 0 min 0,000 mm 0,0 UV-I 0 W/m 15,4 km/h (3 Bft)
31.12.2012 17:14 15,5 C 9,9 C 8,4 C 80 % 1008,1 hPa 0,0 l/m 0 min 0 min 0,000 mm 0,0 UV-I 0 W/m 20,6 km/h (4 Bft)
31.12.2012 17:16 15,5 C 9,9 C 8,4 C 81 % 1008,1 hPa 0,0 l/m 0 min 0 min 0,000 mm 0,0 UV-I 0 W/m 25,7 km/h (4 Bft)
31.12.2012 17:18 15,7 C 9,9 C 8,4 C 81 % 1008,2 hPa 0,0 l/m 0 min 0 min 0,000 mm 0,0 UV-I 0 W/m 28,3 km/h (4 Bft)
31.12.2012 17:20 15,6 C 9,9 C 8,4 C 81 % 1008,1 hPa 0,0 l/m 0 min 0 min 0,000 mm 0,0 UV-I 0 W/m 15,4 km/h (3 Bft)
31.12.2012 17:22 15,6 C 9,9 C 8,4 C 81 % 1008,1 hPa 0,0 l/m 0 min 0 min 0,000 mm 0,0 UV-I 0 W/m 28,3 km/h (4 Bft)
31.12.2012 17:24 15,6 C 9,9 C 8,4 C 81 % 1008,0 hPa 0,0 l/m 0 min 0 min 0,000 mm 0,0 UV-I 0 W/m 15,4 km/h (3 Bft)
31.12.2012 17:26 15,6 C 9,9 C 8,4 C 81 % 1008,0 hPa 0,0 l/m 0 min 0 min 0,000 mm 0,0 UV-I 0 W/m 18,0 km/h (3 Bft)
31.12.2012 17:28 15,5 C 9,9 C 8,4 C 81 % 1007,9 hPa 0,0 l/m 0 min 0 min 0,000 mm 0,0 UV-I 0 W/m 20,6 km/h (4 Bft)
31.12.2012 17:30 15,5 C 9,9 C 8,4 C 81 % 1008,0 hPa 0,0 l/m 0 min 0 min 0,000 mm 0,0 UV-I 0 W/m 36,0 km/h (5 Bft)
31.12.2012 17:32 15,5 C 9,9 C 8,4 C 81 % 1007,9 hPa 0,0 l/m 0 min 0 min 0,000 mm 0,0 UV-I 0 W/m 12,9 km/h (3 Bft)
31.12.2012 17:34 15,6 C 9,9 C 8,4 C 81 % 1008,0 hPa 0,0 l/m 0 min 0 min 0,000 mm 0,0 UV-I 0 W/m 10,3 km/h (2 Bft)
31.12.2012 17:36 15,6 C 9,9 C 8,4 C 81 % 1008,0 hPa 0,0 l/m 0 min 0 min 0,000 mm 0,0 UV-I 0 W/m 12,9 km/h (3 Bft)
31.12.2012 17:38 15,6 C 9,9 C 8,4 C 81 % 1008,0 hPa 0,0 l/m 0 min 0 min 0,000 mm 0,0 UV-I 0 W/m 18,0 km/h (3 Bft)
31.12.2012 17:40 15,5 C 9,9 C 7,9 C 81 % 1008,0 hPa 0,0 l/m 0 min 0 min 0,000 mm 0,0 UV-I 0 W/m 10,3 km/h (2 Bft)
31.12.2012 17:42 15,5 C 9,9 C 7,9 C 82 % 1007,9 hPa 0,0 l/m 0 min 0 min 0,000 mm 0,0 UV-I 0 W/m 10,3 km/h (2 Bft)
31.12.2012 17:44 15,5 C 9,9 C 7,9 C 82 % 1008,0 hPa 0,0 l/m 0 min 0 min 0,000 mm 0,0 UV-I 0 W/m 20,6 km/h (4 Bft)
31.12.2012 17:46 15,5 C 9,8 C 8,4 C 82 % 1007,8 hPa 0,0 l/m 0 min 0 min 0,000 mm 0,0 UV-I 0 W/m 12,9 km/h (3 Bft)
31.12.2012 17:48 15,5 C 9,8 C 8,4 C 82 % 1007,8 hPa 0,0 l/m 0 min 0 min 0,000 mm 0,0 UV-I 0 W/m 15,4 km/h (3 Bft)
31.12.2012 17:50 15,5 C 9,8 C 8,4 C 82 % 1007,8 hPa 0,0 l/m 0 min 0 min 0,000 mm 0,0 UV-I 0 W/m 12,9 km/h (3 Bft)
31.12.2012 17:52 15,7 C 9,8 C 8,4 C 82 % 1007,8 hPa 0,0 l/m 0 min 0 min 0,000 mm 0,0 UV-I 0 W/m 15,4 km/h (3 Bft)
31.12.2012 17:54 15,6 C 9,8 C 7,9 C 82 % 1007,8 hPa 0,0 l/m 0 min 0 min 0,000 mm 0,0 UV-I 0 W/m 10,3 km/h (2 Bft)
31.12.2012 17:56 15,5 C 9,8 C 7,9 C 82 % 1007,8 hPa 0,0 l/m 0 min 0 min 0,000 mm 0,0 UV-I 0 W/m 23,2 km/h (4 Bft)
31.12.2012 17:58 15,5 C 9,8 C 8,4 C 82 % 1007,8 hPa 0,0 l/m 0 min 0 min 0,000 mm 0,0 UV-I 0 W/m 15,4 km/h (3 Bft)
31.12.2012 18:00 15,5 C 9,8 C 8,4 C 83 % 1007,7 hPa 0,0 l/m 0 min 0 min 0,025 mm 0,0 UV-I 0 W/m 12,9 km/h (3 Bft)
31.12.2012 18:02 15,5 C 9,8 C 8,4 C 83 % 1007,7 hPa 0,0 l/m 0 min 0 min 0,000 mm 0,0 UV-I 0 W/m 15,4 km/h (3 Bft)
31.12.2012 18:06 15,5 C 9,8 C 8,4 C 83 % 1007,5 hPa 0,0 l/m 0 min 0 min 0,000 mm 0,0 UV-I 0 W/m 18,0 km/h (3 Bft)
31.12.2012 18:08 15,6 C 9,8 C 8,4 C 83 % 1007,4 hPa 0,0 l/m 0 min 0 min 0,000 mm 0,0 UV-I 0 W/m 15,4 km/h (3 Bft)
31.12.2012 18:10 15,6 C 9,8 C 8,4 C 83 % 1007,5 hPa 0,0 l/m 0 min 0 min 0,000 mm 0,0 UV-I 0 W/m 12,9 km/h (3 Bft)
31.12.2012 18:12 15,6 C 9,8 C 8,4 C 83 % 1007,4 hPa 0,0 l/m 0 min 0 min 0,000 mm 0,0 UV-I 0 W/m 10,3 km/h (2 Bft)
31.12.2012 18:14 15,5 C 9,8 C 8,4 C 83 % 1007,3 hPa 0,0 l/m 0 min 0 min 0,000 mm 0,0 UV-I 0 W/m 10,3 km/h (2 Bft)
31.12.2012 18:16 15,5 C 9,7 C 8,4 C 83 % 1007,4 hPa 0,0 l/m 0 min 0 min 0,000 mm 0,0 UV-I 0 W/m 18,0 km/h (3 Bft)
31.12.2012 18:18 15,5 C 9,7 C 8,4 C 83 % 1007,3 hPa 0,0 l/m 0 min 0 min 0,000 mm 0,0 UV-I 0 W/m 15,4 km/h (3 Bft)
31.12.2012 18:20 15,5 C 9,7 C 8,4 C 83 % 1007,2 hPa 0,0 l/m 0 min 0 min 0,000 mm 0,0 UV-I 0 W/m 12,9 km/h (3 Bft)
31.12.2012 18:22 15,5 C 9,7 C 7,9 C 83 % 1007,2 hPa 0,0 l/m 0 min 0 min 0,000 mm 0,0 UV-I 0 W/m 23,2 km/h (4 Bft)
31.12.2012 18:24 15,5 C 9,7 C 8,4 C 83 % 1007,2 hPa 0,0 l/m 0 min 0 min 0,000 mm 0,0 UV-I 0 W/m 20,6 km/h (4 Bft)
31.12.2012 18:26 15,7 C 9,7 C 7,9 C 83 % 1007,2 hPa 0,0 l/m 0 min 0 min 0,000 mm 0,0 UV-I 0 W/m 20,6 km/h (4 Bft)
31.12.2012 18:28 15,6 C 9,7 C 7,9 C 83 % 1007,2 hPa 0,0 l/m 0 min 0 min 0,000 mm 0,0 UV-I 0 W/m 15,4 km/h (3 Bft)
31.12.2012 18:30 15,6 C 9,7 C 7,9 C 83 % 1007,1 hPa 0,0 l/m 0 min 0 min 0,000 mm 0,0 UV-I 0 W/m 7,7 km/h (2 Bft)
31.12.2012 18:32 15,6 C 9,7 C 7,9 C 83 % 1007,0 hPa 0,0 l/m 0 min 0 min 0,000 mm 0,0 UV-I 0 W/m 15,4 km/h (3 Bft)
31.12.2012 18:34 15,6 C 9,7 C 7,9 C 83 % 1007,1 hPa 0,0 l/m 0 min 0 min 0,000 mm 0,0 UV-I 0 W/m 15,4 km/h (3 Bft)
31.12.2012 18:36 15,6 C 9,7 C 7,9 C 83 % 1007,1 hPa 0,0 l/m 0 min 0 min 0,000 mm 0,0 UV-I 0 W/m 7,7 km/h (2 Bft)
31.12.2012 18:38 15,6 C 9,7 C 7,9 C 83 % 1007,0 hPa 0,0 l/m 0 min 0 min 0,000 mm 0,0 UV-I 0 W/m 15,4 km/h (3 Bft)
31.12.2012 18:40 15,6 C 9,7 C 7,9 C 83 % 1007,0 hPa 0,0 l/m 0 min 0 min 0,000 mm 0,0 UV-I 0 W/m 7,7 km/h (2 Bft)
31.12.2012 18:42 15,6 C 9,6 C 7,9 C 84 % 1007,0 hPa 0,0 l/m 0 min 0 min 0,000 mm 0,0 UV-I 0 W/m 10,3 km/h (2 Bft)
31.12.2012 18:44 15,7 C 9,6 C 7,9 C 84 % 1007,0 hPa 0,0 l/m 0 min 0 min 0,000 mm 0,0 UV-I 0 W/m 10,3 km/h (2 Bft)
31.12.2012 18:46 15,6 C 9,6 C 7,9 C 84 % 1007,0 hPa 0,0 l/m 0 min 0 min 0,000 mm 0,0 UV-I 0 W/m 12,9 km/h (3 Bft)
31.12.2012 18:48 15,6 C 9,6 C 7,9 C 84 % 1006,9 hPa 0,0 l/m 0 min 0 min 0,000 mm 0,0 UV-I 0 W/m 5,1 km/h (1 Bft)
31.12.2012 18:50 15,6 C 9,6 C 7,9 C 84 % 1007,0 hPa 0,0 l/m 0 min 0 min 0,000 mm 0,0 UV-I 0 W/m 12,9 km/h (3 Bft)
31.12.2012 18:52 15,6 C 9,6 C 7,9 C 84 % 1006,9 hPa 0,0 l/m 0 min 0 min 0,000 mm 0,0 UV-I 0 W/m 20,6 km/h (4 Bft)
31.12.2012 18:54 15,6 C 9,6 C 7,9 C 84 % 1006,9 hPa 0,0 l/m 0 min 0 min 0,000 mm 0,0 UV-I 0 W/m 12,9 km/h (3 Bft)
31.12.2012 18:56 15,5 C 9,6 C 7,9 C 84 % 1007,0 hPa 0,0 l/m 0 min 0 min 0,000 mm 0,0 UV-I 0 W/m 18,0 km/h (3 Bft)
31.12.2012 18:58 15,5 C 9,6 C 7,9 C 84 % 1006,9 hPa 0,0 l/m 0 min 0 min 0,000 mm 0,0 UV-I 0 W/m 18,0 km/h (3 Bft)
31.12.2012 19:00 15,7 C 9,7 C 8,4 C 84 % 1007,0 hPa 0,0 l/m 0 min 0 min 0,025 mm 0,0 UV-I 0 W/m 5,1 km/h (1 Bft)
31.12.2012 19:02 15,6 C 9,6 C 7,9 C 84 % 1006,9 hPa 0,0 l/m 0 min 0 min 0,000 mm 0,0 UV-I 0 W/m 15,4 km/h (3 Bft)
31.12.2012 19:04 15,6 C 9,6 C 8,4 C 84 % 1006,9 hPa 0,0 l/m 0 min 0 min 0,000 mm 0,0 UV-I 0 W/m 12,9 km/h (3 Bft)
31.12.2012 19:06 15,6 C 9,7 C 8,4 C 84 % 1006,9 hPa 0,0 l/m 0 min 0 min 0,000 mm 0,0 UV-I 0 W/m 15,4 km/h (3 Bft)
31.12.2012 19:08 15,6 C 9,7 C 8,4 C 84 % 1006,8 hPa 0,0 l/m 0 min 0 min 0,000 mm 0,0 UV-I 0 W/m 20,6 km/h (4 Bft)
31.12.2012 19:10 15,6 C 9,7 C 8,4 C 84 % 1006,9 hPa 0,0 l/m 0 min 0 min 0,000 mm 0,0 UV-I 0 W/m 7,7 km/h (2 Bft)
31.12.2012 19:12 15,6 C 9,7 C 8,4 C 84 % 1006,9 hPa 0,0 l/m 0 min 0 min 0,000 mm 0,0 UV-I 0 W/m 15,4 km/h (3 Bft)
31.12.2012 19:14 15,6 C 9,7 C 8,4 C 83 % 1006,8 hPa 0,0 l/m 0 min 0 min 0,000 mm 0,0 UV-I 0 W/m 12,9 km/h (3 Bft)
31.12.2012 19:16 15,6 C 9,7 C 8,4 C 83 % 1006,8 hPa 0,0 l/m 0 min 0 min 0,000 mm 0,0 UV-I 0 W/m 15,4 km/h (3 Bft)
31.12.2012 19:18 15,7 C 9,7 C 8,4 C 83 % 1006,8 hPa 0,0 l/m 0 min 0 min 0,000 mm 0,0 UV-I 0 W/m 7,7 km/h (2 Bft)
31.12.2012 19:20 15,6 C 9,8 C 8,4 C 83 % 1006,8 hPa 0,0 l/m 0 min 0 min 0,000 mm 0,0 UV-I 0 W/m 18,0 km/h (3 Bft)
31.12.2012 19:22 15,6 C 9,8 C 8,4 C 83 % 1006,8 hPa 0,0 l/m 0 min 0 min 0,000 mm 0,0 UV-I 0 W/m 18,0 km/h (3 Bft)
31.12.2012 19:24 15,6 C 9,8 C 8,4 C 83 % 1006,7 hPa 0,0 l/m 0 min 0 min 0,000 mm 0,0 UV-I 0 W/m 10,3 km/h (2 Bft)
31.12.2012 19:26 15,6 C 9,8 C 8,4 C 83 % 1006,7 hPa 0,0 l/m 0 min 0 min 0,000 mm 0,0 UV-I 0 W/m 15,4 km/h (3 Bft)
31.12.2012 19:28 15,6 C 9,8 C 8,4 C 83 % 1006,7 hPa 0,0 l/m 0 min 0 min 0,000 mm 0,0 UV-I 0 W/m 10,3 km/h (2 Bft)
31.12.2012 19:30 15,6 C 9,8 C 8,4 C 83 % 1006,7 hPa 0,0 l/m 0 min 0 min 0,000 mm 0,0 UV-I 0 W/m 18,0 km/h (3 Bft)
31.12.2012 19:32 15,5 C 9,8 C 8,4 C 83 % 1006,7 hPa 0,0 l/m 0 min 0 min 0,000 mm 0,0 UV-I 0 W/m 20,6 km/h (4 Bft)
31.12.2012 19:34 15,7 C 9,8 C 8,4 C 83 % 1006,6 hPa 0,0 l/m 0 min 0 min 0,000 mm 0,0 UV-I 0 W/m 15,4 km/h (3 Bft)
31.12.2012 19:36 15,6 C 9,8 C 8,4 C 83 % 1006,6 hPa 0,0 l/m 0 min 0 min 0,000 mm 0,0 UV-I 0 W/m 15,4 km/h (3 Bft)
31.12.2012 19:38 15,6 C 9,8 C 8,4 C 83 % 1006,6 hPa 0,0 l/m 0 min 0 min 0,000 mm 0,0 UV-I 0 W/m 18,0 km/h (3 Bft)
31.12.2012 19:40 15,6 C 9,8 C 8,4 C 83 % 1006,3 hPa 0,0 l/m 0 min 0 min 0,000 mm 0,0 UV-I 0 W/m 28,3 km/h (4 Bft)
31.12.2012 19:42 15,6 C 9,8 C 8,4 C 83 % 1006,5 hPa 0,0 l/m 0 min 0 min 0,000 mm 0,0 UV-I 0 W/m 25,7 km/h (4 Bft)
31.12.2012 19:44 15,5 C 9,9 C 8,4 C 83 % 1006,3 hPa 0,0 l/m 0 min 0 min 0,000 mm 0,0 UV-I 0 W/m 12,9 km/h (3 Bft)
31.12.2012 19:46 15,5 C 9,9 C 8,4 C 83 % 1006,3 hPa 0,0 l/m 0 min 0 min 0,000 mm 0,0 UV-I 0 W/m 20,6 km/h (4 Bft)
31.12.2012 19:48 15,5 C 9,9 C 8,4 C 83 % 1006,4 hPa 0,0 l/m 0 min 0 min 0,000 mm 0,0 UV-I 0 W/m 23,2 km/h (4 Bft)
31.12.2012 19:50 15,6 C 9,9 C 8,4 C 83 % 1006,2 hPa 0,0 l/m 0 min 0 min 0,000 mm 0,0 UV-I 0 W/m 25,7 km/h (4 Bft)
31.12.2012 19:52 15,6 C 9,9 C 8,4 C 83 % 1006,2 hPa 0,0 l/m 0 min 0 min 0,000 mm 0,0 UV-I 0 W/m 10,3 km/h (2 Bft)
31.12.2012 19:54 15,6 C 9,9 C 8,4 C 82 % 1006,1 hPa 0,0 l/m 0 min 0 min 0,000 mm 0,0 UV-I 0 W/m 15,4 km/h (3 Bft)
31.12.2012 19:56 15,5 C 9,9 C 8,4 C 82 % 1006,0 hPa 0,0 l/m 0 min 0 min 0,000 mm 0,0 UV-I 0 W/m 23,2 km/h (4 Bft)
31.12.2012 19:58 15,5 C 9,9 C 8,4 C 82 % 1005,9 hPa 0,0 l/m 0 min 0 min 0,000 mm 0,0 UV-I 0 W/m 23,2 km/h (4 Bft)
31.12.2012 20:00 15,5 C 9,9 C 8,4 C 82 % 1005,7 hPa 0,0 l/m 0 min 0 min 0,026 mm 0,0 UV-I 0 W/m 12,9 km/h (3 Bft)
31.12.2012 20:02 15,5 C 9,9 C 8,4 C 82 % 1005,8 hPa 0,0 l/m 0 min 0 min 0,000 mm 0,0 UV-I 0 W/m 12,9 km/h (3 Bft)
31.12.2012 20:06 15,5 C 9,9 C 8,4 C 82 % 1005,8 hPa 0,0 l/m 0 min 0 min 0,000 mm 0,0 UV-I 0 W/m 28,3 km/h (4 Bft)
31.12.2012 20:08 15,7 C 9,9 C 8,4 C 82 % 1005,8 hPa 0,0 l/m 0 min 0 min 0,000 mm 0,0 UV-I 0 W/m 23,2 km/h (4 Bft)
31.12.2012 20:10 15,6 C 9,9 C 8,4 C 82 % 1005,7 hPa 0,0 l/m 0 min 0 min 0,000 mm 0,0 UV-I 0 W/m 28,3 km/h (4 Bft)
31.12.2012 20:12 15,6 C 9,9 C 8,4 C 82 % 1005,7 hPa 0,0 l/m 0 min 0 min 0,000 mm 0,0 UV-I 0 W/m 12,9 km/h (3 Bft)
31.12.2012 20:14 15,5 C 9,9 C 8,4 C 82 % 1005,9 hPa 0,0 l/m 0 min 0 min 0,000 mm 0,0 UV-I 0 W/m 20,6 km/h (4 Bft)
31.12.2012 20:16 15,5 C 9,9 C 8,4 C 82 % 1005,6 hPa 0,0 l/m 0 min 0 min 0,000 mm 0,0 UV-I 0 W/m 18,0 km/h (3 Bft)
31.12.2012 20:18 15,5 C 9,9 C 8,4 C 82 % 1005,7 hPa 0,0 l/m 0 min 0 min 0,000 mm 0,0 UV-I 0 W/m 18,0 km/h (3 Bft)
31.12.2012 20:20 15,5 C 9,8 C 8,4 C 82 % 1005,6 hPa 0,0 l/m 0 min 0 min 0,000 mm 0,0 UV-I 0 W/m 30,9 km/h (5 Bft)
31.12.2012 20:22 15,5 C 9,8 C 8,4 C 82 % 1005,5 hPa 0,0 l/m 0 min 0 min 0,000 mm 0,0 UV-I 0 W/m 15,4 km/h (3 Bft)
31.12.2012 20:24 15,6 C 9,8 C 8,4 C 82 % 1005,5 hPa 0,0 l/m 0 min 0 min 0,000 mm 0,0 UV-I 0 W/m 23,2 km/h (4 Bft)
31.12.2012 20:26 15,6 C 9,8 C 8,4 C 82 % 1005,5 hPa 0,0 l/m 0 min 0 min 0,000 mm 0,0 UV-I 0 W/m 36,0 km/h (5 Bft)
31.12.2012 20:28 15,6 C 9,8 C 8,4 C 82 % 1005,6 hPa 0,0 l/m 0 min 0 min 0,000 mm 0,0 UV-I 0 W/m 23,2 km/h (4 Bft)
31.12.2012 20:30 15,5 C 9,8 C 8,4 C 82 % 1005,3 hPa 0,0 l/m 0 min 0 min 0,000 mm 0,0 UV-I 0 W/m 23,2 km/h (4 Bft)
31.12.2012 20:32 15,5 C 9,8 C 8,4 C 82 % 1005,5 hPa 0,0 l/m 0 min 0 min 0,000 mm 0,0 UV-I 0 W/m 28,3 km/h (4 Bft)
31.12.2012 20:34 15,5 C 9,8 C 8,4 C 82 % 1005,3 hPa 0,0 l/m 0 min 0 min 0,000 mm 0,0 UV-I 0 W/m 20,6 km/h (4 Bft)
31.12.2012 20:36 15,5 C 9,8 C 8,4 C 82 % 1005,2 hPa 0,0 l/m 0 min 0 min 0,000 mm 0,0 UV-I 0 W/m 23,2 km/h (4 Bft)
31.12.2012 20:38 15,5 C 9,8 C 8,4 C 82 % 1005,2 hPa 0,0 l/m 0 min 0 min 0,000 mm 0,0 UV-I 0 W/m 10,3 km/h (2 Bft)
31.12.2012 20:40 15,5 C 9,8 C 8,4 C 82 % 1005,2 hPa 0,0 l/m 0 min 0 min 0,000 mm 0,0 UV-I 0 W/m 28,3 km/h (4 Bft)
31.12.2012 20:42 15,7 C 9,8 C 8,4 C 82 % 1005,4 hPa 0,0 l/m 0 min 0 min 0,000 mm 0,0 UV-I 0 W/m 25,7 km/h (4 Bft)
31.12.2012 20:44 15,6 C 9,8 C 8,4 C 82 % 1005,3 hPa 0,0 l/m 0 min 0 min 0,000 mm 0,0 UV-I 0 W/m 23,2 km/h (4 Bft)
31.12.2012 20:46 15,6 C 9,8 C 8,4 C 81 % 1005,2 hPa 0,0 l/m 0 min 0 min 0,000 mm 0,0 UV-I 0 W/m 28,3 km/h (4 Bft)
31.12.2012 20:48 15,6 C 9,9 C 8,4 C 81 % 1005,1 hPa 0,0 l/m 0 min 0 min 0,000 mm 0,0 UV-I 0 W/m 12,9 km/h (3 Bft)
31.12.2012 20:50 15,6 C 9,9 C 8,4 C 81 % 1005,2 hPa 0,0 l/m 0 min 0 min 0,000 mm 0,0 UV-I 0 W/m 7,7 km/h (2 Bft)
31.12.2012 20:52 15,5 C 9,9 C 8,4 C 81 % 1005,2 hPa 0,0 l/m 0 min 0 min 0,000 mm 0,0 UV-I 0 W/m 12,9 km/h (3 Bft)
31.12.2012 20:54 15,5 C 9,9 C 8,4 C 81 % 1005,2 hPa 0,0 l/m 0 min 0 min 0,000 mm 0,0 UV-I 0 W/m 20,6 km/h (4 Bft)
31.12.2012 20:56 15,5 C 9,9 C 8,4 C 81 % 1005,2 hPa 0,0 l/m 0 min 0 min 0,000 mm 0,0 UV-I 0 W/m 23,2 km/h (4 Bft)
31.12.2012 20:58 15,6 C 9,9 C 8,4 C 81 % 1005,1 hPa 0,0 l/m 0 min 0 min 0,000 mm 0,0 UV-I 0 W/m 23,2 km/h (4 Bft)
31.12.2012 21:00 15,6 C 9,9 C 8,4 C 81 % 1005,1 hPa 0,0 l/m 0 min 0 min 0,025 mm 0,0 UV-I 0 W/m 15,4 km/h (3 Bft)
31.12.2012 21:02 15,6 C 9,9 C 8,4 C 81 % 1005,1 hPa 0,0 l/m 0 min 0 min 0,000 mm 0,0 UV-I 0 W/m 28,3 km/h (4 Bft)
31.12.2012 21:06 15,6 C 9,9 C 8,4 C 81 % 1005,0 hPa 0,0 l/m 0 min 0 min 0,000 mm 0,0 UV-I 0 W/m 18,0 km/h (3 Bft)
31.12.2012 21:08 15,6 C 9,9 C 8,4 C 81 % 1005,1 hPa 0,0 l/m 0 min 0 min 0,000 mm 0,0 UV-I 0 W/m 18,0 km/h (3 Bft)
31.12.2012 21:10 15,5 C 9,9 C 8,4 C 81 % 1005,0 hPa 0,0 l/m 0 min 0 min 0,000 mm 0,0 UV-I 0 W/m 18,0 km/h (3 Bft)
31.12.2012 21:12 15,5 C 9,9 C 8,4 C 81 % 1005,0 hPa 0,0 l/m 0 min 0 min 0,000 mm 0,0 UV-I 0 W/m 23,2 km/h (4 Bft)
31.12.2012 21:14 15,5 C 10,0 C 8,4 C 81 % 1005,0 hPa 0,0 l/m 0 min 0 min 0,000 mm 0,0 UV-I 0 W/m 18,0 km/h (3 Bft)
31.12.2012 21:16 15,7 C 10,0 C 8,4 C 81 % 1004,9 hPa 0,0 l/m 0 min 0 min 0,000 mm 0,0 UV-I 0 W/m 20,6 km/h (4 Bft)
31.12.2012 21:18 15,6 C 10,0 C 8,4 C 81 % 1005,1 hPa 0,0 l/m 0 min 0 min 0,000 mm 0,0 UV-I 0 W/m 23,2 km/h (4 Bft)
31.12.2012 21:20 15,6 C 10,0 C 8,4 C 81 % 1005,0 hPa 0,0 l/m 0 min 0 min 0,000 mm 0,0 UV-I 0 W/m 18,0 km/h (3 Bft)
31.12.2012 21:22 15,5 C 10,0 C 8,4 C 81 % 1005,0 hPa 0,0 l/m 0 min 0 min 0,000 mm 0,0 UV-I 0 W/m 12,9 km/h (3 Bft)
31.12.2012 21:24 15,5 C 10,0 C 8,4 C 81 % 1005,0 hPa 0,0 l/m 0 min 0 min 0,000 mm 0,0 UV-I 0 W/m 25,7 km/h (4 Bft)
31.12.2012 21:26 15,5 C 10,1 C 8,4 C 81 % 1004,8 hPa 0,0 l/m 0 min 0 min 0,000 mm 0,0 UV-I 0 W/m 15,4 km/h (3 Bft)
31.12.2012 21:28 15,5 C 10,1 C 8,4 C 81 % 1004,9 hPa 0,0 l/m 0 min 0 min 0,000 mm 0,0 UV-I 0 W/m 23,2 km/h (4 Bft)
31.12.2012 21:30 15,5 C 10,1 C 8,4 C 80 % 1004,8 hPa 0,0 l/m 0 min 0 min 0,000 mm 0,0 UV-I 0 W/m 23,2 km/h (4 Bft)
31.12.2012 21:32 15,6 C 10,1 C 8,4 C 80 % 1004,8 hPa 0,0 l/m 0 min 0 min 0,000 mm 0,0 UV-I 0 W/m 12,9 km/h (3 Bft)
31.12.2012 21:34 15,6 C 10,1 C 8,4 C 80 % 1004,8 hPa 0,0 l/m 0 min 0 min 0,000 mm 0,0 UV-I 0 W/m 23,2 km/h (4 Bft)
31.12.2012 21:36 15,6 C 10,1 C 8,4 C 80 % 1004,7 hPa 0,0 l/m 0 min 0 min 0,000 mm 0,0 UV-I 0 W/m 23,2 km/h (4 Bft)
31.12.2012 21:38 15,5 C 10,1 C 8,4 C 80 % 1004,7 hPa 0,0 l/m 0 min 0 min 0,000 mm 0,0 UV-I 0 W/m 18,0 km/h (3 Bft)
31.12.2012 21:40 15,5 C 10,1 C 8,4 C 80 % 1004,7 hPa 0,0 l/m 0 min 0 min 0,000 mm 0,0 UV-I 0 W/m 20,6 km/h (4 Bft)
31.12.2012 21:42 15,5 C 10,1 C 8,4 C 80 % 1004,7 hPa 0,0 l/m 0 min 0 min 0,000 mm 0,0 UV-I 0 W/m 20,6 km/h (4 Bft)
31.12.2012 21:44 15,5 C 10,2 C 8,4 C 80 % 1004,7 hPa 0,0 l/m 0 min 0 min 0,000 mm 0,0 UV-I 0 W/m 18,0 km/h (3 Bft)
31.12.2012 21:46 15,5 C 10,2 C 9,0 C 80 % 1004,6 hPa 0,0 l/m 0 min 0 min 0,000 mm 0,0 UV-I 0 W/m 33,5 km/h (5 Bft)
31.12.2012 21:48 15,5 C 10,2 C 9,0 C 80 % 1004,6 hPa 0,0 l/m 0 min 0 min 0,000 mm 0,0 UV-I 0 W/m 18,0 km/h (3 Bft)
31.12.2012 21:50 15,7 C 10,2 C 9,0 C 80 % 1004,6 hPa 0,0 l/m 0 min 0 min 0,000 mm 0,0 UV-I 0 W/m 18,0 km/h (3 Bft)
31.12.2012 21:52 15,6 C 10,2 C 9,0 C 80 % 1004,7 hPa 0,0 l/m 0 min 0 min 0,000 mm 0,0 UV-I 0 W/m 10,3 km/h (2 Bft)
31.12.2012 21:54 15,5 C 10,2 C 9,0 C 80 % 1004,7 hPa 0,0 l/m 0 min 0 min 0,000 mm 0,0 UV-I 0 W/m 18,0 km/h (3 Bft)
31.12.2012 21:56 15,5 C 10,3 C 9,0 C 79 % 1004,6 hPa 0,0 l/m 0 min 0 min 0,000 mm 0,0 UV-I 0 W/m 25,7 km/h (4 Bft)
31.12.2012 21:58 15,5 C 10,3 C 9,0 C 79 % 1004,7 hPa 0,0 l/m 0 min 0 min 0,000 mm 0,0 UV-I 0 W/m 25,7 km/h (4 Bft)
31.12.2012 22:00 15,5 C 10,3 C 9,0 C 79 % 1004,6 hPa 0,0 l/m 0 min 0 min 0,026 mm 0,0 UV-I 0 W/m 28,3 km/h (4 Bft)
31.12.2012 22:02 15,5 C 10,3 C 9,0 C 79 % 1004,6 hPa 0,0 l/m 0 min 0 min 0,000 mm 0,0 UV-I 0 W/m 38,6 km/h (5 Bft)
31.12.2012 22:06 15,6 C 10,3 C 9,0 C 79 % 1004,5 hPa 0,0 l/m 0 min 0 min 0,000 mm 0,0 UV-I 0 W/m 30,9 km/h (5 Bft)
31.12.2012 22:08 15,6 C 10,4 C 9,0 C 79 % 1004,4 hPa 0,0 l/m 0 min 0 min 0,000 mm 0,0 UV-I 0 W/m 20,6 km/h (4 Bft)
31.12.2012 22:10 15,5 C 10,4 C 9,0 C 79 % 1004,5 hPa 0,0 l/m 0 min 0 min 0,000 mm 0,0 UV-I 0 W/m 18,0 km/h (3 Bft)
31.12.2012 22:12 15,5 C 10,4 C 9,0 C 79 % 1004,5 hPa 0,0 l/m 0 min 0 min 0,000 mm 0,0 UV-I 0 W/m 25,7 km/h (4 Bft)
31.12.2012 22:14 15,5 C 10,4 C 9,0 C 79 % 1004,5 hPa 0,0 l/m 0 min 0 min 0,000 mm 0,0 UV-I 0 W/m 28,3 km/h (4 Bft)
31.12.2012 22:16 15,5 C 10,4 C 9,0 C 79 % 1004,5 hPa 0,0 l/m 0 min 0 min 0,000 mm 0,0 UV-I 0 W/m 23,2 km/h (4 Bft)
31.12.2012 22:18 15,5 C 10,4 C 9,0 C 79 % 1004,4 hPa 0,0 l/m 0 min 0 min 0,000 mm 0,0 UV-I 0 W/m 33,5 km/h (5 Bft)
31.12.2012 22:20 15,5 C 10,4 C 9,0 C 79 % 1004,5 hPa 0,0 l/m 0 min 0 min 0,000 mm 0,0 UV-I 0 W/m 18,0 km/h (3 Bft)
31.12.2012 22:22 15,4 C 10,4 C 9,0 C 79 % 1004,5 hPa 0,0 l/m 0 min 0 min 0,000 mm 0,0 UV-I 0 W/m 12,9 km/h (3 Bft)
31.12.2012 22:24 15,6 C 10,4 C 9,0 C 79 % 1004,3 hPa 0,0 l/m 0 min 0 min 0,000 mm 0,0 UV-I 0 W/m 18,0 km/h (3 Bft)
31.12.2012 22:26 15,5 C 10,4 C 9,0 C 79 % 1004,3 hPa 0,0 l/m 0 min 0 min 0,000 mm 0,0 UV-I 0 W/m 15,4 km/h (3 Bft)
31.12.2012 22:28 15,5 C 10,4 C 9,0 C 79 % 1004,5 hPa 0,0 l/m 0 min 0 min 0,000 mm 0,0 UV-I 0 W/m 30,9 km/h (5 Bft)
31.12.2012 22:30 15,5 C 10,4 C 9,0 C 79 % 1004,3 hPa 0,0 l/m 0 min 0 min 0,000 mm 0,0 UV-I 0 W/m 20,6 km/h (4 Bft)
31.12.2012 22:32 15,5 C 10,4 C 9,0 C 79 % 1004,2 hPa 0,0 l/m 0 min 0 min 0,000 mm 0,0 UV-I 0 W/m 20,6 km/h (4 Bft)
31.12.2012 22:34 15,5 C 10,4 C 9,0 C 79 % 1004,4 hPa 0,0 l/m 0 min 0 min 0,000 mm 0,0 UV-I 0 W/m 25,7 km/h (4 Bft)
31.12.2012 22:36 15,4 C 10,4 C 9,0 C 79 % 1004,2 hPa 0,0 l/m 0 min 0 min 0,000 mm 0,0 UV-I 0 W/m 15,4 km/h (3 Bft)
31.12.2012 22:38 15,4 C 10,4 C 9,0 C 79 % 1004,2 hPa 0,0 l/m 0 min 0 min 0,000 mm 0,0 UV-I 0 W/m 36,0 km/h (5 Bft)
31.12.2012 22:40 15,6 C 10,4 C 9,0 C 79 % 1004,2 hPa 0,0 l/m 0 min 0 min 0,000 mm 0,0 UV-I 0 W/m 23,2 km/h (4 Bft)
31.12.2012 22:42 15,6 C 10,4 C 9,0 C 79 % 1004,1 hPa 0,0 l/m 0 min 0 min 0,000 mm 0,0 UV-I 0 W/m 30,9 km/h (5 Bft)
31.12.2012 22:44 15,5 C 10,4 C 9,0 C 79 % 1004,2 hPa 0,0 l/m 0 min 0 min 0,000 mm 0,0 UV-I 0 W/m 25,7 km/h (4 Bft)
31.12.2012 22:46 15,5 C 10,4 C 9,0 C 79 % 1004,1 hPa 0,0 l/m 0 min 0 min 0,000 mm 0,0 UV-I 0 W/m 25,7 km/h (4 Bft)
31.12.2012 22:48 15,5 C 10,4 C 9,0 C 79 % 1004,1 hPa 0,0 l/m 0 min 0 min 0,000 mm 0,0 UV-I 0 W/m 18,0 km/h (3 Bft)
31.12.2012 22:50 15,5 C 10,4 C 9,0 C 79 % 1004,0 hPa 0,0 l/m 0 min 0 min 0,000 mm 0,0 UV-I 0 W/m 20,6 km/h (4 Bft)
31.12.2012 22:52 15,5 C 10,4 C 9,0 C 79 % 1004,1 hPa 0,0 l/m 0 min 0 min 0,000 mm 0,0 UV-I 0 W/m 12,9 km/h (3 Bft)
31.12.2012 22:54 15,4 C 10,4 C 9,0 C 79 % 1004,0 hPa 0,0 l/m 0 min 0 min 0,000 mm 0,0 UV-I 0 W/m 30,9 km/h (5 Bft)
31.12.2012 22:56 15,4 C 10,4 C 9,0 C 79 % 1004,1 hPa 0,0 l/m 0 min 0 min 0,000 mm 0,0 UV-I 0 W/m 20,6 km/h (4 Bft)
31.12.2012 22:58 15,6 C 10,4 C 9,0 C 79 % 1004,1 hPa 0,0 l/m 0 min 0 min 0,000 mm 0,0 UV-I 0 W/m 18,0 km/h (3 Bft)
31.12.2012 23:00 15,5 C 10,4 C 9,0 C 79 % 1004,1 hPa 0,0 l/m 0 min 0 min 0,025 mm 0,0 UV-I 0 W/m 12,9 km/h (3 Bft)
31.12.2012 23:02 15,5 C 10,4 C 9,0 C 79 % 1004,1 hPa 0,0 l/m 0 min 0 min 0,000 mm 0,0 UV-I 0 W/m 23,2 km/h (4 Bft)
31.12.2012 23:06 15,5 C 10,4 C 9,0 C 79 % 1004,0 hPa 0,0 l/m 0 min 0 min 0,000 mm 0,0 UV-I 0 W/m 33,5 km/h (5 Bft)
31.12.2012 23:08 15,5 C 10,4 C 9,0 C 79 % 1004,1 hPa 0,0 l/m 0 min 0 min 0,000 mm 0,0 UV-I 0 W/m 25,7 km/h (4 Bft)
31.12.2012 23:10 15,5 C 10,3 C 9,0 C 79 % 1004,0 hPa 0,0 l/m 0 min 0 min 0,000 mm 0,0 UV-I 0 W/m 25,7 km/h (4 Bft)
31.12.2012 23:12 15,4 C 10,3 C 9,0 C 79 % 1004,0 hPa 0,0 l/m 0 min 0 min 0,000 mm 0,0 UV-I 0 W/m 15,4 km/h (3 Bft)
31.12.2012 23:14 15,6 C 10,3 C 9,0 C 79 % 1004,0 hPa 0,0 l/m 0 min 0 min 0,000 mm 0,0 UV-I 0 W/m 23,2 km/h (4 Bft)
31.12.2012 23:16 15,6 C 10,3 C 9,0 C 79 % 1004,1 hPa 0,0 l/m 0 min 0 min 0,000 mm 0,0 UV-I 0 W/m 20,6 km/h (4 Bft)
31.12.2012 23:18 15,5 C 10,3 C 9,0 C 79 % 1004,2 hPa 0,0 l/m 0 min 0 min 0,000 mm 0,0 UV-I 0 W/m 33,5 km/h (5 Bft)
31.12.2012 23:20 15,5 C 10,4 C 9,0 C 79 % 1004,0 hPa 0,0 l/m 0 min 0 min 0,000 mm 0,0 UV-I 0 W/m 30,9 km/h (5 Bft)
31.12.2012 23:22 15,5 C 10,3 C 9,0 C 79 % 1004,0 hPa 0,0 l/m 0 min 0 min 0,000 mm 0,0 UV-I 0 W/m 12,9 km/h (3 Bft)
31.12.2012 23:24 15,4 C 10,3 C 9,0 C 79 % 1004,0 hPa 0,0 l/m 0 min 0 min 0,000 mm 0,0 UV-I 0 W/m 18,0 km/h (3 Bft)
31.12.2012 23:26 15,4 C 10,3 C 9,0 C 79 % 1004,0 hPa 0,0 l/m 0 min 0 min 0,000 mm 0,0 UV-I 0 W/m 36,0 km/h (5 Bft)
31.12.2012 23:28 15,4 C 10,3 C 8,4 C 79 % 1004,0 hPa 0,0 l/m 0 min 0 min 0,000 mm 0,0 UV-I 0 W/m 25,7 km/h (4 Bft)
31.12.2012 23:30 15,4 C 10,3 C 8,4 C 79 % 1004,0 hPa 0,0 l/m 0 min 0 min 0,000 mm 0,0 UV-I 0 W/m 20,6 km/h (4 Bft)
31.12.2012 23:32 15,6 C 10,3 C 8,4 C 79 % 1004,1 hPa 0,0 l/m 0 min 0 min 0,000 mm 0,0 UV-I 0 W/m 20,6 km/h (4 Bft)
31.12.2012 23:34 15,6 C 10,3 C 8,4 C 79 % 1004,0 hPa 0,0 l/m 0 min 0 min 0,000 mm 0,0 UV-I 0 W/m 33,5 km/h (5 Bft)
31.12.2012 23:36 15,5 C 10,3 C 8,4 C 79 % 1004,1 hPa 0,0 l/m 0 min 0 min 0,000 mm 0,0 UV-I 0 W/m 38,6 km/h (5 Bft)
31.12.2012 23:38 15,5 C 10,3 C 8,4 C 79 % 1004,0 hPa 0,0 l/m 0 min 0 min 0,000 mm 0,0 UV-I 0 W/m 25,7 km/h (4 Bft)
31.12.2012 23:40 15,4 C 10,2 C 8,4 C 79 % 1003,9 hPa 0,0 l/m 0 min 0 min 0,000 mm 0,0 UV-I 0 W/m 23,2 km/h (4 Bft)
31.12.2012 23:42 15,4 C 10,2 C 8,4 C 79 % 1004,0 hPa 0,0 l/m 0 min 0 min 0,000 mm 0,0 UV-I 0 W/m 18,0 km/h (3 Bft)
31.12.2012 23:44 15,4 C 10,2 C 8,4 C 80 % 1004,0 hPa 0,0 l/m 0 min 0 min 0,000 mm 0,0 UV-I 0 W/m 18,0 km/h (3 Bft)
31.12.2012 23:46 15,4 C 10,2 C 8,4 C 80 % 1004,0 hPa 0,0 l/m 0 min 0 min 0,000 mm 0,0 UV-I 0 W/m 33,5 km/h (5 Bft)
31.12.2012 23:48 15,5 C 10,2 C 8,4 C 80 % 1004,0 hPa 0,0 l/m 0 min 0 min 0,000 mm 0,0 UV-I 0 W/m 30,9 km/h (5 Bft)
31.12.2012 23:50 15,5 C 10,2 C 8,4 C 80 % 1003,9 hPa 0,0 l/m 0 min 0 min 0,000 mm 0,0 UV-I 0 W/m 28,3 km/h (4 Bft)
31.12.2012 23:52 15,5 C 10,2 C 8,4 C 80 % 1003,9 hPa 0,0 l/m 0 min 0 min 0,000 mm 0,0 UV-I 0 W/m 15,4 km/h (3 Bft)
31.12.2012 23:54 15,4 C 10,2 C 8,4 C 80 % 1003,9 hPa 0,0 l/m 0 min 0 min 0,000 mm 0,0 UV-I 0 W/m 28,3 km/h (4 Bft)
31.12.2012 23:56 15,4 C 10,1 C 8,4 C 80 % 1004,0 hPa 0,0 l/m 0 min 0 min 0,000 mm 0,0 UV-I 0 W/m 36,0 km/h (5 Bft)
31.12.2012 23:58 15,4 C 10,1 C 8,4 C 80 % 1003,9 hPa 0,0 l/m 0 min 0 min 0,000 mm 0,0 UV-I 0 W/m 20,6 km/h (4 Bft)
_ Min-Zeit 00:00 07:02 06:24 16:06 23:40 - - - - - - 03:30
Minimum _ 14,9 C 7,7 C 5,7 C 78 % 1003,9 hPa - - - - - - 5,1 km/h (1 Bft)
_ Max-Zeit 17:18 22:08 12:34 00:00 01:10 00:00 00:00 00:00 12:00 00:00 13:10 01:12
Maximum _ 15,7 C 10,4 C 9,0 C 86 % 1016,9 hPa 0,0 l/m 0 min 0 min 0,051 mm 0,0 UV-I 91 W/m 43,8 km/h
S (6 Bft)
Durchschnitt _ 15,3 C 9,2 C 7,7 C 83 % 1011,4 hPa #0,0 l/m #0 min. #0 min. #0,635 mm 0,0 UV-I 47 W/m 19,5 km/h (3 Bft)
© 2012 W. Hausmann